GFSMA_925_rhum_078.txt.gz
RH
65 65 61 65 71 74 71 78 77 59 52 68 67 61 61 64 66 68 68 61 64 73 86 87 86 85 87 89 86 86 87 88 88 89 90 87 87 87 86 87 85 85 85
70 62 62 62 62 63 59 62 61 58 48 68 69 63 60 63 61 62 60 58 59 63 73 86 85 84 84 85 85 85 85 87 88 88 87 87 87 87 87 86 85 84 84
69 61 62 61 58 59 63 62 66 69 71 70 71 69 61 60 58 56 54 52 55 58 67 84 83 82 83 82 86 82 81 80 81 81 81 81 82 84 84 84 85 84 82
67 63 62 62 57 60 63 68 65 67 70 70 70 69 65 58 57 56 54 52 50 54 66 75 82 82 82 80 83 81 76 74 74 74 73 73 75 77 78 79 81 80 80
68 64 62 62 62 59 63 66 68 66 70 71 70 68 66 59 56 55 54 51 50 55 63 72 79 76 79 78 78 80 76 72 71 68 69 68 68 72 74 77 78 80 80
61 63 63 62 63 64 61 64 63 62 63 64 67 66 65 61 54 52 51 48 47 54 64 72 75 78 72 70 76 75 74 70 67 64 65 66 66 69 72 75 78 80 80
60 60 62 63 62 63 65 65 67 66 64 65 69 68 64 61 57 50 47 46 47 50 65 73 76 75 73 67 66 71 72 73 67 63 63 64 69 71 76 81 79 80 80
65 63 63 63 63 63 64 68 73 75 74 69 70 71 73 66 59 57 49 47 47 49 54 68 75 72 68 63 60 62 69 70 70 63 61 65 72 76 76 78 78 79 80
73 68 66 65 65 65 64 66 71 76 81 77 71 69 84 85 72 56 53 48 48 49 50 54 67 71 66 60 58 57 64 68 69 58 64 70 70 73 75 75 77 78 80
78 87 84 74 70 71 73 71 71 74 81 86 88 75 71 67 80 81 54 54 53 50 51 54 61 73 70 68 64 59 62 72 60 63 63 66 70 70 72 78 78 78 79
71 73 79 77 75 79 84 86 84 83 83 90 91 86 78 78 68 73 77 72 62 61 57 60 68 75 81 90 92 66 64 70 75 77 83 89 89 90 90 82 80 83 83
77 76 74 72 76 75 76 91 94 95 91 96 100 97 91 88 89 83 88 82 76 68 66 67 75 82 88 83 78 88 93 88 77 82 80 81 94 96 97 98 97 87 86
85 84 73 77 82 81 81 85 77 88 92 96 95 97 97 97 91 89 93 91 88 82 80 75 79 80 83 88 92 82 82 86 86 90 92 98 100 100 99 99 98 95 90
79 75 76 86 94 90 95 92 82 80 93 99 100 100 100 100 100 98 90 95 97 93 92 86 86 92 90 82 81 85 87 90 93 98 99 99 99 98 99 97 89 85 81
90 95 95 96 98 92 76 79 78 84 83 88 92 99 100 100 100 100 100 96 94 99 96 94 84 84 80 82 88 96 99 100 100 99 98 98 98 100 96 82 78 78 79
85 86 86 89 90 87 82 83 86 84 82 90 93 87 98 100 100 100 100 98 96 96 97 95 99 98 99 97 100 99 100 99 98 99 99 100 98 87 77 76 78 79 79
85 84 84 81 77 76 85 96 95 95 99 99 99 100 100 99 99 99 97 95 96 99 99 100 100 100 100 99 98 100 99 94 90 98 97 85 76 74 76 76 75 77 79
79 82 82 78 80 85 92 99 98 98 94 97 98 99 100 100 99 97 95 96 98 98 97 98 99 100 99 99 98 98 100 87 63 61 75 76 76 71 69 76 80 81 80
76 77 76 76 78 81 84 90 96 98 99 99 98 98 97 94 93 93 93 92 91 90 90 92 99 100 99 98 95 69 60 63 64 63 68 61 66 74 76 83 84 82 82
79 79 80 81 82 84 86 89 91 94 95 96 94 92 89 88 90 93 94 94 92 90 91 93 93 92 87 77 70 67 67 68 61 58 52 47 63 61 70 75 84 79 72
86 85 84 85 85 85 87 86 89 90 88 91 95 97 98 98 98 94 92 92 92 94 94 82 80 80 79 72 69 69 66 63 58 53 58 55 53 52 55 58 56 55 59
98 100 97 95 100 100 85 80 79 83 89 96 99 100 99 98 99 99 98 96 80 78 88 91 90 84 76 75 65 66 65 69 76 66 72 48 53 51 57 56 56 72 86
99 98 100 100 99 98 100 90 88 90 91 94 94 94 86 63 59 57 82 85 83 88 85 78 78 79 79 73 69 67 72 82 82 67 74 69 59 60 62 60 61 87 95
100 100 100 99 99 100 98 92 90 88 86 77 64 56 56 63 80 87 80 79 80 81 77 80 78 76 74 71 67 73 88 90 84 66 75 89 73 70 68 60 63 75 91
99 99 97 98 78 83 67 47 43 44 48 55 63 68 69 82 88 91 76 83 82 76 68 72 74 83 86 88 87 88 91 85 79 81 82 93 84 86 76 66 65 66 63
96 87 78 73 75 78 87 68 61 58 60 62 65 73 82 80 82 82 76 67 73 69 63 61 76 76 66 65 65 72 72 76 81 88 90 96 87 91 86 76 70 73 71

GFSMA_925_rhum_081.txt.gz
RH
48 57 66 65 72 80 78 77 79 79 59 48 57 56 58 63 67 67 72 72 77 78 82 87 88 87 88 91 90 87 89 90 90 90 92 89 90 88 88 88 87 87 85
68 61 60 60 69 70 71 68 67 72 60 50 66 68 64 63 64 65 68 68 71 75 72 84 89 87 87 88 89 88 88 90 90 91 90 89 89 88 89 87 87 86 85
74 69 64 64 64 63 65 63 65 67 68 53 62 68 69 63 62 62 62 63 62 68 67 75 88 87 87 86 87 87 86 88 88 86 86 86 87 88 86 86 86 85 83
74 71 68 62 63 61 61 62 66 67 70 72 73 73 72 70 63 60 59 58 57 58 60 63 74 87 86 86 84 86 83 81 81 81 79 78 80 80 81 81 82 82 82
76 71 70 63 64 62 60 63 68 70 67 67 69 69 71 71 68 60 58 56 56 55 54 55 65 76 81 86 83 83 83 78 77 75 74 73 72 74 76 77 79 81 81
68 72 71 67 64 65 63 62 66 69 71 68 70 71 71 72 69 64 59 57 55 54 53 55 63 74 80 78 83 80 81 81 74 73 70 70 69 70 72 74 78 82 83
60 65 69 67 65 66 66 64 64 67 68 70 73 72 71 70 68 65 60 56 54 52 51 54 62 69 78 79 75 79 78 79 75 69 66 66 68 71 72 79 82 80 81
62 62 63 62 64 66 67 67 69 68 70 72 73 78 80 70 66 66 65 60 54 50 51 54 62 71 77 80 76 74 81 76 80 80 69 64 67 74 76 77 78 77 80
69 67 67 65 65 67 68 67 71 75 82 81 82 77 84 88 80 63 59 59 59 54 53 54 63 78 88 88 86 86 81 78 78 81 73 79 82 78 76 74 75 77 78
77 80 78 75 70 70 71 69 72 75 80 90 91 88 79 78 82 84 60 55 54 55 55 50 52 57 74 86 87 90 89 85 89 80 74 79 87 90 84 90 83 87 85
82 83 84 83 82 84 81 79 80 82 86 95 92 92 91 93 84 81 86 79 68 64 62 61 58 61 67 77 90 94 95 90 97 100 100 88 89 86 98 95 96 89 89
78 78 78 80 81 84 83 85 86 94 97 99 99 99 96 93 96 94 94 85 82 75 72 68 64 67 75 83 90 99 100 100 98 97 98 98 99 100 98 98 100 100 98
63 73 85 83 78 76 79 77 85 84 84 100 100 99 99 100 100 96 92 94 92 86 78 75 73 76 79 86 93 92 91 95 97 99 100 100 100 99 100 99 97 100 99
59 72 80 89 88 81 82 82 96 92 89 92 100 100 100 100 100 100 100 98 99 95 92 84 84 85 86 88 93 94 99 99 97 97 98 100 99 98 98 99 100 99 93
96 98 94 94 95 99 100 98 82 82 76 88 93 88 92 99 94 98 100 100 99 99 96 96 86 86 89 94 98 100 100 99 100 98 98 95 97 98 99 98 98 95 90
92 96 99 100 100 97 91 87 84 82 89 94 89 95 97 99 99 97 100 99 99 99 99 98 100 96 94 97 100 100 100 99 98 99 99 98 99 99 97 89 85 81 79
87 87 87 86 85 85 90 94 93 96 98 99 99 98 97 98 100 99 96 95 94 94 99 100 100 100 100 100 100 100 100 100 100 97 98 98 97 85 79 79 79 77 78
83 84 82 77 76 79 83 88 92 94 98 98 98 99 99 99 98 96 96 98 98 98 95 98 100 99 99 99 99 100 100 100 95 67 77 80 79 78 76 75 80 83 82
79 80 78 76 78 82 87 93 96 99 98 98 98 98 99 98 96 95 92 90 90 88 88 89 99 100 100 100 100 98 96 70 62 61 69 70 67 74 75 79 87 89 88
79 80 81 82 84 86 88 91 94 96 96 95 94 93 92 91 91 90 90 91 91 90 92 92 95 96 92 92 84 72 69 66 63 60 57 51 52 53 60 74 77 80 70
86 86 86 87 89 89 92 92 94 97 92 90 97 99 100 98 99 95 91 92 91 91 89 80 81 81 80 76 73 70 67 63 58 50 52 54 56 49 50 54 55 55 54
96 93 93 96 100 100 93 82 86 90 100 98 96 98 98 98 98 100 100 98 86 73 80 85 89 84 80 75 69 68 66 65 70 61 68 54 52 53 58 58 60 76 88
100 100 98 98 98 98 100 90 89 90 92 96 95 90 68 59 58 58 77 75 87 91 87 77 76 76 76 76 72 69 69 77 81 72 78 63 61 59 61 59 59 63 86
100 100 100 100 97 99 100 90 89 88 84 64 54 52 56 70 89 78 73 76 79 79 77 79 72 69 67 67 67 68 85 92 84 71 78 86 71 69 62 57 60 66 94
100 99 96 92 75 72 44 40 39 42 46 53 62 64 71 83 89 92 65 77 79 75 71 81 85 89 93 88 85 85 89 96 78 77 82 89 88 85 73 62 64 64 81
97 95 73 71 78 89 86 57 53 52 53 59 64 73 84 82 82 81 73 62 61 67 64 61 63 77 70 67 68 71 75 78 81 84 89 90 89 88 87 69 66 62 63

GFSMA_925_rhum_084.txt.gz
RH
51 68 76 80 77 83 83 79 78 81 78 58 49 52 58 61 66 70 68 73 76 79 95 89 88 90 89 93 91 89 90 92 91 91 94 90 92 89 90 88 89 88 87
75 47 53 62 60 68 74 76 72 73 77 70 48 64 68 70 67 66 65 67 72 73 80 94 92 90 89 90 91 89 90 91 91 92 91 90 90 90 89 89 88 88 86
80 73 58 61 59 66 71 76 75 71 68 65 47 61 70 70 69 64 62 63 66 69 70 83 90 91 90 89 88 89 89 89 91 89 88 88 87 88 86 86 86 86 85
80 80 70 67 63 66 67 69 68 69 68 70 70 65 68 71 71 69 66 61 62 63 63 64 72 83 90 89 87 85 87 85 86 85 83 80 80 80 81 81 82 82 82
77 81 75 71 68 65 68 64 66 69 70 68 69 69 68 69 70 72 70 65 60 59 59 61 63 68 76 86 88 84 88 85 81 79 77 75 74 73 76 77 79 81 82
75 78 78 73 72 67 67 68 66 67 69 72 73 70 68 69 70 72 71 69 64 60 58 59 63 64 72 79 88 86 81 90 82 78 74 73 70 70 72 73 77 83 85
72 72 71 72 73 73 67 67 68 68 69 72 80 74 70 68 68 67 68 68 66 63 60 57 59 66 71 80 82 86 84 85 86 76 70 67 68 70 73 77 80 79 79
70 66 67 69 71 74 70 69 72 72 72 73 76 82 86 73 64 64 66 67 67 66 62 56 55 58 65 77 85 83 82 88 98 91 83 81 74 71 74 76 76 75 75
69 66 67 68 69 70 70 70 72 77 79 78 79 80 91 92 80 64 61 60 60 60 63 61 56 56 59 74 87 88 84 82 84 98 99 92 94 94 90 84 80 82 82
84 79 72 71 71 71 72 71 72 75 81 89 90 90 86 85 91 90 71 65 59 63 61 58 56 56 58 68 80 92 91 93 92 93 99 96 97 94 94 90 97 98 90
88 90 91 88 82 79 81 81 81 81 83 90 92 95 95 94 93 89 92 84 76 70 68 70 66 63 62 69 81 88 96 98 98 93 92 94 91 94 100 97 100 100 100
87 84 83 82 82 82 85 91 95 96 95 99 97 100 100 97 98 96 98 94 90 84 80 76 76 72 69 73 76 81 91 93 99 100 100 96 93 99 100 100 98 97 99
69 71 79 86 87 87 89 89 88 91 94 90 89 97 100 99 98 97 96 97 96 91 85 82 80 79 80 80 85 90 97 100 99 100 100 100 99 99 99 99 99 99 100
55 57 68 83 97 96 95 97 96 97 100 100 100 100 99 99 99 100 100 100 98 97 92 90 86 83 85 84 87 91 98 100 98 99 100 100 90 98 99 98 99 92 94
94 99 98 100 100 100 99 100 100 99 96 88 87 90 99 100 100 97 100 98 99 99 95 94 89 86 82 85 97 99 98 100 100 98 88 89 89 92 90 96 98 98 98
98 99 99 100 100 100 100 99 93 88 89 84 89 99 100 100 98 96 99 97 98 100 99 98 97 93 92 99 100 100 100 100 100 99 98 98 95 95 99 98 98 94 89
91 92 92 93 94 93 93 92 92 93 86 89 99 99 99 98 99 97 98 98 96 99 100 100 100 100 100 100 100 99 99 99 97 97 95 99 99 99 94 86 82 81 80
83 84 83 81 80 79 81 84 90 93 94 96 99 98 99 99 98 96 93 90 94 96 97 98 99 100 100 100 100 100 98 98 96 95 87 86 82 82 81 80 81 84 84
78 79 78 77 79 84 88 90 92 97 98 98 98 96 96 97 95 92 90 88 88 88 88 92 100 100 99 100 99 96 96 94 67 62 65 76 75 74 76 79 83 89 91
80 80 81 82 84 87 90 95 100 99 99 98 96 94 94 91 87 86 86 87 87 88 90 90 96 95 91 94 84 72 66 65 62 61 58 55 52 47 50 52 77 82 74
86 86 87 89 92 93 96 98 99 98 95 97 98 99 100 99 97 94 90 90 90 89 85 82 83 83 80 76 74 71 67 63 58 52 48 55 56 55 49 48 53 54 54
93 92 92 95 100 100 98 98 98 100 100 97 98 99 98 97 99 100 99 96 85 67 75 82 88 82 80 74 70 68 66 63 60 65 66 53 51 50 56 58 59 60 56
99 99 99 99 99 99 99 88 90 96 99 99 96 82 68 61 60 62 80 73 89 93 81 71 70 71 73 75 72 68 66 76 80 75 73 61 57 57 60 58 56 52 53
99 99 100 100 99 100 100 90 88 87 82 64 52 50 59 82 88 69 67 72 76 74 79 73 66 62 69 72 71 72 82 92 88 74 76 82 70 68 59 57 56 66 96
100 100 100 99 98 98 78 55 43 40 46 54 58 66 75 78 85 84 52 61 74 73 74 86 87 93 88 92 87 81 83 91 80 76 84 91 89 81 71 64 68 70 98
99 93 78 71 69 73 60 49 48 49 52 61 71 80 85 81 78 82 61 52 52 64 65 65 64 70 73 71 70 75 77 80 82 84 90 91 90 89 85 68 66 61 57

GFSMA_925_rhum_087.txt.gz
RH
61 78 82 83 83 83 83 81 78 77 79 79 58 52 54 59 63 67 70 69 77 80 93 94 87 86 88 94 91 87 90 92 90 93 93 92 91 91 90 90 88 89 85
68 56 73 76 75 68 75 79 75 70 73 78 73 52 62 66 70 67 66 65 68 75 77 96 95 93 91 92 93 90 89 92 91 93 91 92 90 90 89 89 89 88 87
78 77 55 54 58 60 68 72 74 72 68 68 63 50 58 69 70 71 68 65 63 66 70 74 96 93 93 91 90 91 91 90 92 91 89 88 87 88 86 86 86 86 86
80 80 77 62 61 64 69 71 73 72 69 66 65 68 68 69 73 73 73 71 66 63 65 67 70 88 92 91 90 86 93 88 86 86 84 80 80 79 80 80 82 83 83
80 81 81 74 71 70 68 71 68 70 69 70 68 68 68 67 68 69 69 71 70 67 63 63 65 71 79 89 89 87 89 91 82 75 79 77 73 72 74 75 78 80 82
78 80 79 78 76 76 73 69 70 69 71 72 73 72 71 70 69 68 68 68 70 71 67 62 61 65 73 79 87 88 88 95 89 84 79 78 72 72 72 73 77 85 82
78 79 77 78 80 79 74 71 70 72 73 72 79 79 70 68 68 66 64 64 66 68 68 66 63 60 62 68 76 88 90 88 98 88 81 80 78 81 74 68 77 79 76
76 78 82 80 78 82 80 77 74 74 76 75 79 84 74 72 65 62 59 57 62 65 66 67 64 60 61 67 77 83 86 90 93 95 86 91 85 88 83 76 79 88 84
71 70 74 74 72 75 79 79 76 74 84 79 80 78 90 88 76 64 64 62 63 64 62 59 61 61 58 60 67 82 90 86 88 98 95 99 100 88 89 87 84 81 95
86 77 72 71 71 73 75 74 75 76 82 91 87 86 82 84 90 84 72 70 69 68 72 68 64 62 61 60 67 84 94 94 91 91 99 100 100 100 100 100 100 100 99
89 92 92 88 82 77 78 78 79 80 82 88 90 91 93 96 96 95 96 87 79 74 73 78 76 73 72 69 65 71 81 92 96 98 98 98 100 100 100 99 100 99 99
94 91 92 95 95 95 91 88 88 90 89 91 93 92 94 96 98 98 97 94 92 86 84 81 81 79 76 73 75 76 80 89 96 99 99 98 99 97 98 100 98 97 99
83 86 90 93 92 90 92 95 99 99 96 96 99 100 99 99 98 97 96 98 96 93 88 85 82 81 80 79 78 78 85 98 95 97 100 98 100 99 91 93 84 98 98
62 63 66 77 86 95 99 99 97 98 100 99 100 98 99 100 99 99 100 98 97 96 94 90 85 83 85 84 82 83 86 98 99 99 100 99 99 89 76 82 95 96 97
69 73 79 83 94 99 100 100 99 100 100 100 99 98 100 100 99 99 100 100 98 96 88 93 96 89 90 88 90 97 99 99 100 100 100 99 88 82 83 89 97 99 100
98 98 95 95 98 99 99 100 99 100 100 95 90 95 100 100 100 99 98 97 99 98 97 98 99 98 95 98 99 100 100 100 100 100 95 85 88 89 95 96 98 95 91
91 96 94 93 99 100 98 99 98 95 94 91 94 94 99 99 99 99 99 97 95 96 98 100 100 99 99 99 99 99 99 99 97 93 93 96 99 98 97 91 86 85 83
83 85 86 87 87 88 91 96 96 98 96 98 99 98 98 97 96 96 93 90 91 95 96 100 100 100 99 99 99 99 99 98 94 94 93 87 86 85 85 84 84 85 85
79 80 81 80 81 83 83 86 88 92 92 94 98 98 98 96 94 90 86 86 86 86 88 97 99 99 96 97 97 96 94 91 76 64 60 62 67 66 64 63 78 85 90
81 82 82 82 83 88 92 94 98 98 98 98 98 97 94 91 88 85 84 84 85 86 88 93 99 99 94 94 85 76 72 61 59 59 56 54 50 50 47 42 46 57 65
84 85 85 87 89 91 95 96 100 99 98 94 92 92 91 90 87 87 86 86 85 85 87 93 90 88 85 78 74 68 68 59 57 48 46 48 50 49 49 47 46 50 54
92 92 93 95 100 100 100 100 99 99 99 99 99 99 99 99 99 100 97 88 71 61 67 80 84 77 78 75 68 71 70 66 50 55 67 66 51 53 53 54 56 58 60
97 100 100 99 100 100 100 100 100 100 98 99 98 93 84 74 71 71 82 83 85 83 59 56 68 71 74 70 68 66 66 71 74 83 80 69 59 66 58 58 56 53 53
100 99 100 100 99 100 100 97 98 97 94 80 62 56 60 70 61 55 58 64 69 72 70 64 58 60 67 69 71 74 81 87 88 78 74 79 74 74 64 58 56 71 83
100 100 100 100 99 100 100 87 78 56 47 51 58 70 73 80 94 49 47 61 71 74 90 95 89 96 85 97 86 87 90 93 74 78 83 92 88 88 75 65 65 81 96
100 100 100 97 80 73 56 42 41 44 52 60 67 78 69 73 79 79 47 45 58 65 65 64 63 66 69 82 70 75 77 89 90 86 91 98 98 94 85 69 67 66 60

GFSMA_925_rhum_090.txt.gz
RH
66 71 72 74 77 79 77 79 78 78 79 78 70 57 56 59 62 62 66 71 69 77 87 97 95 89 88 92 91 88 90 92 90 94 91 92 91 91 89 87 86 86 88
62 68 73 76 76 76 75 75 71 69 71 74 71 62 58 63 68 70 67 67 64 68 78 93 97 96 93 93 94 90 89 92 91 93 91 91 90 89 88 88 88 88 87
75 75 66 68 71 71 72 76 77 74 68 67 66 62 55 61 69 70 71 70 70 68 69 76 94 96 95 92 92 93 86 87 90 90 89 87 82 84 84 83 83 84 86
82 80 76 67 66 72 75 75 72 72 69 68 65 67 69 66 68 69 70 71 71 72 74 67 70 80 94 95 91 91 94 89 83 78 82 82 76 77 78 78 78 80 83
83 82 78 75 71 74 75 76 74 73 72 72 72 70 70 70 70 70 69 69 70 70 73 75 67 68 75 86 91 88 94 95 93 89 83 72 67 69 66 71 70 77 82
84 85 81 80 78 77 78 79 79 79 74 70 71 70 69 70 71 71 68 68 68 72 74 75 76 75 71 74 81 88 88 95 96 91 86 80 74 72 69 69 75 80 80
85 87 83 82 84 83 79 79 77 78 77 78 75 69 69 68 69 68 68 67 66 72 72 72 73 73 74 76 79 84 91 89 91 96 87 84 77 78 76 72 75 77 78
90 89 87 86 85 86 85 83 81 78 75 76 71 71 68 58 62 65 65 67 66 69 68 71 73 74 75 78 85 79 78 81 92 98 96 87 87 87 85 77 77 76 83
89 89 83 88 89 90 87 86 85 86 77 84 84 76 81 76 66 66 67 66 65 66 66 61 71 73 72 80 71 66 76 86 84 91 99 90 99 98 93 95 84 97 97
80 78 77 80 90 86 81 91 92 88 89 82 95 90 83 84 82 89 73 72 69 70 71 73 72 72 70 71 65 64 66 78 88 98 97 100 100 100 99 99 99 98 97
86 88 92 86 83 87 81 89 92 92 90 89 86 93 98 99 96 96 94 76 83 76 74 78 81 77 76 75 83 67 66 75 94 98 98 98 99 99 99 99 95 98 99
99 97 97 100 99 97 96 95 96 97 96 96 95 96 96 88 89 94 95 91 87 92 86 83 84 80 79 76 78 78 78 80 88 98 99 97 99 100 100 99 98 100 98
89 96 98 100 100 100 100 100 100 100 100 100 100 99 98 93 94 92 93 83 87 93 91 85 87 88 82 78 80 80 82 86 93 99 100 100 99 99 100 100 97 97 93
80 78 77 80 92 98 100 100 100 100 99 100 99 99 100 97 99 100 99 91 91 90 90 88 91 89 83 84 87 89 98 93 99 100 100 99 100 99 96 93 88 84 83
70 73 75 84 81 80 99 100 100 100 100 100 100 100 99 99 98 99 100 99 92 76 73 92 91 98 92 96 99 99 98 100 100 100 100 100 98 92 88 86 82 82 87
86 90 93 92 94 91 93 99 99 100 100 100 100 100 99 100 99 99 96 94 98 96 90 97 100 100 97 100 100 99 99 100 99 99 98 97 91 86 83 83 84 88 91
87 96 92 90 90 90 99 100 100 100 100 99 98 98 100 99 98 97 96 96 99 95 89 99 100 97 99 99 100 99 98 98 95 94 90 88 86 85 87 90 87 87 86
79 83 89 92 89 89 97 99 99 99 99 97 99 99 99 98 98 95 99 99 99 97 98 98 99 99 99 97 97 95 94 93 92 89 88 88 86 86 86 85 84 83 82
76 78 81 83 85 87 89 93 95 95 95 95 97 97 96 96 95 93 94 91 89 90 94 95 99 99 97 96 95 93 85 81 79 73 65 61 62 63 65 58 50 70 86
82 81 82 83 84 86 88 88 91 93 95 96 96 96 95 95 94 93 90 91 91 87 90 90 92 94 88 90 85 74 68 65 61 58 55 50 48 53 43 42 34 46 61
86 87 89 90 90 92 97 99 98 96 97 97 96 93 92 88 84 86 92 89 90 84 82 90 88 82 82 75 67 64 56 54 53 63 56 53 57 58 60 57 47 45 46
94 94 97 99 100 100 100 100 100 100 100 99 100 100 100 100 100 94 78 75 80 79 82 79 82 67 62 59 61 57 58 54 43 69 62 52 64 58 62 64 61 52 53
99 100 100 100 100 99 98 99 100 99 97 97 98 99 98 96 94 94 95 90 80 46 60 59 53 50 55 58 67 77 68 67 55 62 72 58 63 58 63 63 59 51 52
99 100 99 99 99 99 98 100 99 99 99 96 89 83 74 68 59 68 70 76 78 73 67 61 60 63 66 69 72 71 76 74 75 73 79 71 65 63 64 68 68 69 85
100 100 100 99 99 98 100 100 99 92 79 66 66 78 80 80 56 48 77 74 67 84 89 68 70 63 66 80 80 83 86 79 66 63 77 79 75 80 74 72 67 70 92
100 100 100 100 99 100 98 84 67 60 61 66 72 74 66 70 91 48 54 55 58 61 73 72 72 65 76 85 69 86 87 94 84 81 88 92 94 89 86 76 76 78 74

GFSMA_925_rhum_093.txt.gz
RH
55 52 57 66 69 70 75 70 66 65 68 66 62 49 47 50 53 56 58 65 64 68 79 99 92 84 83 86 87 84 84 85 91 94 92 92 92 90 87 85 84 86 84
53 59 61 63 64 66 65 65 63 62 62 63 60 57 49 52 56 60 62 64 65 63 69 78 98 97 94 94 94 88 82 80 87 91 92 91 90 89 89 89 89 88 88
57 60 58 62 63 62 60 63 64 64 58 56 57 54 50 48 58 63 65 65 65 69 66 68 81 97 97 95 94 91 80 82 77 72 72 76 75 75 77 80 82 84 86
70 70 67 59 59 62 64 65 64 63 60 60 58 58 62 58 58 60 63 66 67 68 70 71 68 81 90 96 93 94 96 92 90 85 80 62 55 63 68 73 73 81 84
72 73 70 66 59 64 67 69 66 64 63 65 66 65 65 66 65 65 66 64 66 69 71 70 73 72 73 82 94 93 94 99 94 89 86 77 61 58 71 74 75 78 82
73 75 72 71 68 67 69 70 70 69 69 65 64 65 65 65 66 67 66 65 64 67 72 74 75 77 74 72 75 91 88 91 99 98 91 86 73 73 73 72 74 79 82
74 77 75 72 73 73 71 71 72 73 74 76 72 70 68 67 68 67 67 65 61 66 70 69 71 71 71 74 75 74 80 90 91 98 97 91 84 79 77 77 75 80 80
82 79 79 78 75 76 77 75 74 75 76 72 73 67 73 63 64 64 62 62 63 65 67 69 70 70 72 74 83 86 83 82 94 93 97 94 92 83 85 82 78 75 78
89 91 88 84 82 81 81 82 81 80 76 74 76 74 81 79 65 62 63 64 64 64 67 66 68 72 74 78 82 76 68 71 78 89 95 99 98 88 97 92 90 88 96
80 97 99 95 87 89 90 88 86 84 87 83 84 84 79 78 80 79 72 71 69 68 72 74 74 78 78 80 80 78 67 68 73 83 94 93 99 97 100 96 98 98 95
68 64 68 96 94 89 92 91 92 92 91 88 84 88 90 89 95 91 92 79 83 79 76 77 82 83 81 81 76 71 67 70 74 88 99 98 95 99 99 99 100 96 90
93 94 100 83 99 96 91 91 93 94 92 88 88 88 91 95 96 94 93 86 83 89 86 84 85 86 86 86 79 75 78 80 79 97 99 100 97 92 100 99 99 100 100
82 88 90 99 100 98 98 98 98 95 94 92 92 91 91 91 84 87 83 82 88 86 90 91 89 90 92 90 86 82 89 84 85 91 98 100 95 93 93 98 99 99 100
64 77 85 90 96 99 99 99 100 98 97 97 98 95 93 92 89 90 89 88 95 89 90 88 93 96 90 92 94 100 99 100 100 99 99 98 98 94 95 93 89 80 79
68 72 76 83 90 93 99 99 96 96 99 99 98 99 96 96 98 98 96 97 97 92 95 91 96 100 97 98 100 98 98 99 100 100 99 99 98 94 90 86 82 80 81
75 83 86 87 89 89 84 100 99 100 100 100 99 100 100 99 99 98 96 96 98 96 86 96 99 100 98 96 99 99 99 98 98 99 98 96 93 90 87 83 82 84 85
80 85 87 89 92 95 99 98 98 98 99 100 100 99 99 99 94 94 94 92 91 93 95 100 100 98 98 97 97 98 98 96 93 93 92 89 86 86 85 85 85 85 86
74 76 81 86 88 91 97 98 100 100 100 100 99 97 95 96 95 94 93 93 96 98 94 97 99 98 99 95 98 98 92 89 87 84 86 85 84 84 84 82 81 81 77
73 76 79 82 84 89 89 91 94 94 93 94 95 96 96 96 96 94 98 98 95 92 98 92 98 97 95 93 92 89 81 78 72 73 67 60 54 51 49 47 45 44 59
75 78 80 83 85 85 87 87 88 89 91 93 94 94 94 96 97 96 95 94 90 88 89 92 93 93 89 88 86 75 69 64 60 57 54 46 39 38 36 34 34 33 37
80 83 84 87 91 93 93 92 91 91 92 93 94 94 95 94 96 93 90 86 87 84 83 87 92 84 84 82 71 65 57 53 55 49 56 52 51 56 58 59 51 44 44
86 86 89 91 96 98 99 99 98 99 99 100 99 99 95 86 84 82 86 82 81 85 87 84 85 83 67 62 60 55 57 56 50 60 56 55 55 56 60 64 64 58 53
93 96 98 99 99 99 99 99 99 99 99 99 99 99 99 98 96 94 90 67 62 71 72 68 62 51 56 55 61 62 66 64 58 61 56 62 59 58 58 62 66 62 52
100 99 96 97 99 99 99 99 99 100 100 100 100 97 88 87 82 70 63 61 58 57 48 55 56 59 62 58 64 56 70 70 69 71 64 71 64 68 64 66 67 62 73
98 99 99 100 99 99 98 99 99 99 96 90 82 74 69 68 51 69 67 67 76 75 54 61 67 58 60 68 76 81 85 80 72 62 72 81 79 83 77 77 69 61 73
100 99 99 100 99 99 99 100 92 79 71 70 73 74 72 76 45 49 63 61 59 67 72 63 50 48 79 56 66 85 87 93 86 85 84 90 95 94 92 78 76 79 78

GFSMA_925_rhum_096.txt.gz
RH
60 62 81 76 75 79 76 74 76 68 70 69 64 51 46 50 53 57 58 61 64 62 73 93 86 81 80 77 76 73 70 68 93 90 93 93 92 90 88 87 89 87 85
56 53 59 71 73 78 76 73 67 65 65 65 64 62 51 50 52 57 60 64 65 66 62 70 95 96 92 91 83 76 76 74 74 72 84 87 86 84 87 88 89 89 88
53 58 61 63 64 66 65 65 63 61 59 57 59 59 55 48 55 61 64 66 66 67 69 64 71 95 99 97 97 91 85 84 81 77 73 68 64 66 74 72 81 84 86
57 60 60 61 64 63 62 62 65 65 61 58 59 57 58 54 53 58 61 64 67 68 69 71 71 69 84 93 96 97 96 89 87 84 79 67 49 57 66 67 64 77 83
70 70 70 63 59 61 65 66 66 65 64 63 63 62 63 65 66 66 65 65 65 67 69 72 74 74 74 76 90 96 95 99 87 81 82 77 66 56 70 64 64 73 84
72 74 72 70 62 61 67 69 69 67 66 67 67 65 66 67 67 67 67 67 67 67 68 71 75 76 76 74 73 81 94 92 99 97 85 80 78 72 76 76 76 79 80
72 74 75 73 71 67 69 70 71 72 73 70 71 70 69 67 67 67 68 68 66 63 66 71 71 72 72 75 76 77 81 82 92 93 99 99 93 85 82 79 79 82 79
74 74 76 76 74 74 74 72 72 74 74 75 75 76 86 72 68 67 68 67 64 66 68 69 70 71 72 75 82 84 86 83 82 89 95 98 98 90 90 84 80 82 76
74 76 80 80 78 78 77 77 76 75 76 76 75 74 90 90 71 68 65 63 64 65 67 68 68 70 73 76 78 75 73 68 68 76 95 94 95 97 91 92 89 89 89
71 71 71 71 71 73 78 84 83 84 81 81 79 74 75 82 90 88 70 69 67 66 69 74 75 75 77 78 76 74 71 68 68 80 97 94 96 97 98 98 96 93 98
59 60 60 62 61 61 76 81 77 76 90 86 85 87 86 84 87 92 94 84 80 79 78 78 82 85 83 82 79 74 69 67 69 76 98 97 93 79 98 99 99 100 88
77 70 61 65 69 61 57 66 64 75 69 89 91 88 86 89 96 96 99 89 88 86 86 84 84 86 85 81 81 77 73 69 69 77 98 98 98 82 94 99 99 98 99
56 68 75 74 55 58 82 89 86 92 94 92 91 85 87 88 86 89 89 88 91 90 91 92 88 85 85 86 87 84 84 82 88 93 99 97 83 98 98 100 99 100 99
58 48 48 68 86 96 96 88 97 100 99 98 96 94 94 97 95 89 82 85 98 95 92 91 96 93 92 96 99 100 99 98 98 98 99 96 93 94 95 96 97 88 84
70 70 68 62 65 69 77 92 95 93 86 94 96 94 96 100 97 92 86 86 88 97 99 94 98 100 99 98 99 98 98 99 98 95 96 97 95 94 92 88 85 82 80
59 58 64 73 77 80 79 87 98 96 99 98 99 100 100 99 99 96 98 95 94 94 96 95 100 99 99 96 97 98 98 97 95 92 92 96 92 90 88 86 83 81 83
71 77 80 86 88 90 91 99 97 96 100 100 100 100 100 100 100 99 96 93 94 96 98 100 100 100 97 97 94 97 96 94 93 87 96 92 87 84 84 84 85 85 87
64 69 72 80 84 87 93 98 96 99 100 100 100 100 100 99 97 94 91 91 92 89 92 95 99 98 97 97 94 94 91 89 87 84 86 87 85 83 84 83 82 81 77
68 69 72 76 79 81 88 92 94 98 99 99 99 98 96 96 95 93 93 94 97 97 94 91 97 97 93 90 91 89 86 82 75 71 66 61 55 51 47 45 45 41 41
68 70 72 74 77 81 84 87 89 91 92 94 95 94 94 94 94 91 91 92 91 91 95 92 91 92 89 90 88 85 72 66 61 57 51 48 40 35 35 34 34 33 32
72 74 77 79 81 84 86 88 88 89 90 93 95 94 94 94 94 93 91 90 88 87 91 90 92 91 86 85 78 68 62 55 56 52 40 44 48 40 46 55 48 47 40
78 81 85 88 91 93 90 100 97 94 93 92 94 94 93 94 95 91 89 87 85 83 87 89 90 83 83 75 66 58 55 54 57 61 47 36 54 49 59 59 61 60 51
86 87 87 89 95 98 98 99 98 98 96 96 98 97 98 94 91 86 84 80 80 83 85 87 83 73 63 60 57 57 55 55 59 64 54 61 60 55 60 62 62 62 59
98 100 93 94 95 98 98 99 98 100 100 99 100 99 98 96 92 78 68 49 48 55 59 55 54 52 54 53 52 49 54 61 63 67 59 70 71 66 63 66 69 66 56
97 93 95 99 99 99 100 97 100 100 100 100 99 90 88 82 77 67 53 63 59 54 58 56 55 53 54 55 55 56 72 79 76 68 70 68 84 80 64 69 74 66 61
96 96 98 99 100 98 99 98 100 96 91 84 76 75 76 63 50 78 56 66 69 69 55 50 45 50 42 49 70 78 83 81 84 82 86 74 86 81 75 82 80 79 79

GFSMA_925_rhum_102.txt.gz
RH
86 81 76 73 73 70 71 71 72 73 71 65 56 51 51 56 58 59 61 63 66 67 74 81 82 79 77 75 71 72 78 93 93 94 94 93 91 91 91 90 88 87 86
72 83 81 76 74 74 73 76 80 79 74 73 70 66 53 47 52 56 57 61 66 69 69 94 97 93 90 86 80 77 76 79 80 87 89 89 86 86 86 88 88 88 86
65 70 76 76 74 75 76 77 80 75 75 72 68 68 65 57 50 53 57 63 67 69 70 72 85 96 99 100 97 93 85 80 79 76 74 69 64 66 73 83 84 85 86
60 59 68 72 75 77 79 80 79 72 66 62 60 62 62 59 52 51 60 64 66 68 69 70 73 79 89 93 95 98 95 84 83 81 79 71 56 61 70 78 76 84 89
59 61 61 65 79 76 76 71 71 68 66 65 61 60 60 59 59 58 56 60 64 67 69 70 73 75 78 77 79 87 95 97 93 86 80 80 75 61 65 71 66 76 86
54 59 65 68 70 70 68 66 64 66 67 67 66 66 66 65 66 66 67 68 69 69 69 71 73 72 77 77 77 78 95 93 94 96 96 94 86 81 76 80 72 82 83
58 58 56 61 63 63 63 64 66 69 70 70 72 71 70 68 67 66 68 70 71 72 72 72 73 72 74 74 74 76 77 79 84 92 94 94 96 87 87 84 84 84 83
70 69 69 69 70 70 62 63 66 70 73 73 74 82 90 75 71 73 72 72 74 74 75 74 72 72 72 72 74 78 80 81 83 85 90 86 90 98 94 88 87 87 86
76 74 74 76 75 74 71 68 72 78 76 81 82 77 92 93 85 77 84 81 79 78 74 74 73 72 70 72 75 77 77 74 73 73 86 95 92 88 93 94 94 88 90
79 78 79 85 82 86 88 81 86 87 90 92 93 87 87 90 94 90 78 76 76 73 74 74 72 72 74 75 75 76 76 72 70 69 79 95 95 95 96 97 97 91 94
84 89 88 88 91 85 82 86 80 78 75 79 86 91 86 89 96 100 96 89 78 79 78 79 78 78 80 82 80 77 74 70 68 68 66 88 94 92 92 95 96 96 98
78 75 74 74 78 93 85 77 74 75 74 70 68 68 84 90 96 99 99 95 88 86 85 82 81 81 83 82 79 76 72 69 69 66 84 93 88 81 91 94 92 98 100
77 80 72 67 63 67 76 74 75 65 65 68 67 77 69 70 76 82 91 95 97 95 91 91 88 86 88 86 83 84 95 90 82 94 98 99 97 90 95 99 98 99 98
69 74 73 75 76 81 80 79 81 65 65 65 63 51 95 64 76 88 84 93 99 100 97 96 94 93 92 96 94 99 98 95 92 96 96 92 99 99 90 96 98 98 97
64 66 69 73 77 77 80 88 90 89 93 88 96 95 94 92 93 90 91 91 90 99 98 100 98 99 99 99 100 99 98 97 92 92 87 87 97 100 99 94 91 88 86
69 74 78 78 74 73 72 74 75 76 76 78 78 99 100 99 99 100 100 100 96 91 98 99 100 100 99 100 100 98 97 95 93 92 90 89 90 94 92 91 88 84 82
72 71 68 65 65 69 73 74 76 80 83 82 86 98 100 100 100 100 100 100 100 99 97 100 100 100 100 100 97 95 94 91 91 89 88 89 90 90 87 87 87 85 85
58 62 69 72 72 75 76 80 83 88 91 98 100 100 98 100 100 100 100 100 99 100 97 99 100 100 100 100 97 95 89 91 88 90 90 88 94 98 90 85 87 85 82
57 59 60 63 68 69 70 74 80 86 89 91 100 99 93 100 100 100 100 100 97 95 95 95 100 100 99 100 100 97 92 88 84 88 87 82 82 81 80 76 73 70 63
60 60 60 62 65 66 68 71 76 84 92 89 90 99 99 99 100 100 99 97 95 96 96 92 93 97 94 100 98 93 88 84 72 66 61 57 50 47 44 43 42 40 38
62 61 62 64 66 68 70 71 76 84 92 94 87 94 96 97 98 98 97 95 94 93 97 95 93 94 92 98 96 90 85 78 64 60 52 47 47 42 41 52 47 45 39
65 67 70 73 75 77 80 80 89 89 92 93 94 94 94 96 98 98 97 95 92 90 96 97 92 91 90 90 92 89 80 70 64 59 50 44 49 50 51 55 56 58 55
71 72 73 75 78 80 86 93 98 97 96 94 92 91 94 96 97 96 94 92 92 92 91 93 90 91 92 89 89 84 72 62 54 57 52 50 57 56 60 61 70 63 61
75 78 80 82 85 86 89 97 91 90 93 98 98 94 94 93 94 96 94 91 88 87 88 89 87 86 85 81 78 73 65 58 60 57 51 65 67 64 65 66 73 68 61
82 88 87 87 90 91 92 99 98 92 95 100 100 100 100 98 93 90 87 82 79 75 69 75 83 81 74 67 64 59 55 50 72 67 63 60 73 71 69 66 73 70 66
94 100 99 93 95 96 97 100 95 93 100 100 100 99 99 98 93 87 67 58 61 71 65 68 72 68 58 53 49 48 43 48 69 76 69 71 76 65 81 80 76 74 71

GFSMA_925_rhum_105.txt.gz
RH
75 72 65 62 60 59 55 47 54 61 60 59 56 55 52 58 62 66 66 66 69 75 82 83 81 81 80 77 75 74 87 91 94 93 94 92 92 92 91 89 88 87 86
79 76 74 72 74 70 71 71 70 74 76 73 65 63 58 50 53 57 61 62 67 72 75 91 94 91 93 92 84 80 78 85 85 79 83 83 84 88 90 90 90 89 87
77 79 79 79 74 75 77 79 82 82 80 77 74 73 70 63 52 51 55 59 66 70 71 73 92 95 99 99 93 92 85 81 77 75 71 58 54 63 79 83 87 87 91
63 70 78 76 75 77 80 80 81 82 76 73 69 65 67 65 62 52 54 60 66 68 70 71 74 78 82 88 90 94 97 85 83 80 79 71 50 48 62 68 70 81 89
63 66 68 68 74 78 80 81 82 81 72 68 66 64 61 61 60 57 54 58 61 65 68 70 72 74 77 77 80 79 91 95 97 89 83 80 76 56 55 69 70 80 82
61 64 64 64 66 79 82 82 79 75 71 68 68 66 65 66 66 65 67 67 68 70 70 68 71 73 73 77 72 73 76 81 86 95 96 95 82 80 66 82 80 84 85
52 56 61 65 70 78 72 73 69 70 68 70 72 71 70 68 69 70 71 71 73 74 73 74 72 74 73 73 72 71 75 78 80 85 90 97 99 85 80 86 87 86 86
59 55 56 62 66 67 68 68 68 66 68 73 75 82 90 75 76 78 76 75 76 78 78 78 80 78 74 70 70 71 76 78 78 79 84 90 91 94 96 91 90 88 88
68 65 66 70 73 74 71 66 67 72 73 80 82 80 94 93 90 80 82 88 83 81 83 80 78 76 76 74 73 75 75 75 73 73 82 87 92 91 95 96 93 92 91
71 73 75 76 79 79 78 75 73 81 88 92 96 95 95 95 96 95 86 81 82 80 78 77 78 74 72 74 75 77 77 76 71 69 78 95 95 93 95 97 96 96 92
86 85 83 91 91 94 87 82 91 100 91 95 99 96 100 100 100 99 97 93 84 83 75 81 78 73 77 76 76 79 75 72 70 68 71 91 92 92 90 87 90 95 95
88 90 87 85 90 86 84 86 86 82 90 87 90 90 88 88 98 100 99 97 89 82 80 86 83 83 82 79 80 78 74 71 68 68 69 95 94 86 96 96 90 96 98
88 83 82 80 80 85 94 94 92 81 80 86 86 88 85 82 82 88 96 93 97 93 90 90 90 88 89 86 83 80 81 87 86 92 98 98 98 100 97 93 90 94 100
75 79 85 88 82 79 85 87 79 79 78 83 78 80 78 70 71 82 92 82 99 100 97 90 92 92 94 92 88 93 97 95 94 92 90 90 98 100 96 85 96 98 98
72 75 80 76 71 73 79 80 80 85 91 91 94 95 97 99 99 99 100 97 92 99 98 99 94 98 96 96 98 99 97 96 91 97 91 85 94 94 98 92 90 92 90
64 62 65 70 77 80 83 84 83 79 81 83 86 88 90 92 93 93 98 99 100 98 98 99 100 100 100 100 99 98 98 94 92 93 91 86 90 93 96 93 90 86 83
67 73 76 78 78 78 75 71 71 74 78 82 83 91 100 98 98 93 100 100 100 100 99 100 100 100 100 100 100 98 94 96 92 93 88 87 87 89 89 88 84 81 84
77 75 73 69 66 67 69 71 73 78 84 87 89 99 99 95 95 99 99 100 99 99 99 99 100 100 100 100 100 97 94 91 90 93 87 88 88 92 90 88 85 81 82
65 64 65 66 65 65 65 65 67 72 79 88 94 99 100 93 95 99 100 100 100 100 100 99 100 100 100 99 100 99 94 92 90 93 93 91 89 90 88 87 84 82 80
60 60 62 62 61 60 61 62 65 68 74 85 94 93 94 98 100 100 100 100 100 100 99 96 99 100 98 100 100 97 91 87 84 83 80 76 69 67 63 59 52 47 42
61 61 62 64 66 67 68 69 70 74 79 87 93 93 93 94 97 100 100 100 100 100 100 98 96 96 96 100 99 97 90 84 76 69 62 57 52 44 42 44 40 38 34
64 67 70 71 71 72 74 77 79 80 87 91 92 93 94 94 95 98 99 99 99 98 97 100 95 93 92 92 99 94 88 80 72 66 59 48 46 46 43 46 49 50 50
69 70 72 73 74 76 83 86 89 88 89 94 94 93 90 89 95 97 96 94 92 95 97 96 96 92 88 86 88 92 85 77 62 61 58 45 50 51 54 56 72 59 58
74 76 76 77 80 82 86 95 99 92 89 89 95 97 96 94 94 95 96 93 91 90 92 94 96 92 91 91 88 87 87 76 64 56 55 53 55 59 62 62 74 70 63
79 82 82 81 81 83 87 97 96 91 88 91 99 100 99 100 99 98 95 92 87 82 80 86 90 88 86 82 85 85 75 67 69 62 55 53 67 68 67 67 74 74 68
83 82 91 95 88 89 90 91 98 98 92 95 99 100 99 100 99 99 84 76 81 79 74 71 76 76 72 71 70 68 64 61 57 68 58 57 72 69 67 70 72 75 71

GFSMA_925_rhum_108.txt.gz
RH
63 61 60 58 57 55 53 53 51 60 62 63 63 60 56 60 62 66 69 69 72 80 83 84 81 80 80 80 77 74 76 82 79 79 91 92 92 92 91 91 90 89 89
49 48 49 49 50 51 53 51 52 62 71 69 68 61 60 53 56 60 64 65 67 72 77 93 94 92 95 95 91 81 78 73 72 69 73 66 74 84 91 91 91 90 90
70 68 69 69 69 70 74 78 79 81 82 80 75 74 74 71 61 52 56 61 65 70 74 75 89 91 96 92 90 89 87 81 74 72 67 56 54 62 78 73 80 91 92
77 75 74 76 76 78 79 79 82 84 82 76 75 72 67 69 67 63 54 57 63 68 71 73 74 79 83 84 91 92 98 87 80 78 78 72 51 50 65 68 73 82 90
71 73 74 73 79 80 81 82 83 84 82 76 70 66 66 63 62 62 59 55 58 64 67 70 72 74 76 76 79 76 79 87 89 88 86 85 76 58 56 72 69 77 82
67 69 70 71 77 81 81 82 83 84 81 72 71 70 67 65 65 66 65 68 68 67 70 70 69 73 75 73 73 74 76 78 80 87 98 90 82 77 70 69 73 76 80
64 65 66 67 72 70 71 80 82 82 76 73 76 72 68 72 72 73 73 73 74 75 75 74 75 77 77 73 72 68 71 75 77 80 83 88 97 91 88 87 86 86 88
60 61 60 62 66 68 75 82 80 75 75 76 80 83 88 80 81 80 78 75 75 76 78 81 84 82 77 74 65 64 69 75 75 74 72 79 83 88 98 88 92 88 90
57 56 58 62 64 70 75 74 74 76 78 82 85 90 95 94 92 81 79 86 84 82 85 87 89 85 80 74 69 68 73 74 75 74 78 81 87 94 95 98 96 94 93
70 65 65 69 73 79 82 80 82 80 82 90 99 95 95 99 98 96 88 85 84 84 86 85 84 83 80 74 72 72 73 73 73 71 72 91 94 92 91 94 96 95 94
79 77 81 86 95 96 94 89 86 82 81 90 90 89 100 100 100 100 98 96 88 86 86 84 87 89 82 77 78 79 76 73 69 68 68 93 92 93 91 87 86 88 95
84 93 88 89 79 88 100 100 93 91 92 93 98 95 94 93 97 100 100 97 93 86 86 87 87 90 82 84 84 83 77 72 69 68 69 93 92 92 98 91 79 86 91
98 100 97 100 94 87 89 90 91 93 87 97 93 90 88 88 92 93 92 92 98 95 89 91 90 93 91 87 86 86 79 73 78 92 99 99 93 93 98 74 76 95 93
96 94 85 82 80 81 82 89 93 87 84 83 84 86 89 96 93 88 95 95 97 100 100 90 91 93 92 90 92 90 84 81 92 99 95 90 91 99 100 99 95 98 99
85 86 89 86 84 82 82 87 88 88 89 94 100 99 100 99 99 100 100 98 99 97 98 95 92 96 97 96 96 94 93 90 90 91 94 88 83 89 92 93 92 96 96
78 77 77 78 76 78 82 85 87 86 81 77 77 78 82 84 88 95 97 100 100 100 96 95 99 98 99 100 100 100 96 94 90 86 89 90 84 92 93 95 92 88 87
71 69 72 75 79 81 79 76 71 69 73 78 80 85 96 99 99 93 92 100 99 100 100 100 100 99 100 100 100 100 98 95 93 88 92 90 86 88 89 95 91 92 97
71 75 77 77 74 71 70 71 71 72 74 77 84 92 100 99 99 92 93 94 100 100 100 100 99 100 100 100 100 100 97 94 91 89 90 89 86 88 91 97 90 88 88
75 70 66 65 66 66 67 66 65 66 69 76 85 91 98 98 96 95 99 99 100 100 100 100 100 99 99 100 100 100 98 93 94 91 95 91 87 91 92 90 86 84 83
60 60 60 61 61 62 62 62 63 64 67 72 80 88 93 93 97 99 99 100 100 100 100 100 100 100 99 100 100 99 98 94 98 96 92 88 85 86 85 82 77 75 66
62 62 60 62 63 64 64 65 66 67 69 74 80 87 92 94 95 98 99 100 100 100 100 100 100 99 100 100 99 99 95 89 84 83 80 79 72 64 62 62 48 40 36
61 59 62 64 66 69 74 74 72 72 75 78 83 88 91 90 89 93 97 98 100 100 100 100 99 96 95 98 100 99 94 81 79 73 71 65 59 51 44 45 45 40 40
65 67 69 70 72 76 80 84 89 86 84 84 87 92 93 92 88 88 92 96 95 95 97 100 100 97 92 89 90 100 94 85 77 74 65 58 52 49 48 50 61 62 55
72 73 74 74 75 79 85 95 98 93 89 86 90 94 98 98 95 94 96 94 92 90 89 94 96 98 97 90 88 87 89 85 75 66 64 48 54 54 55 62 74 71 59
77 78 79 79 80 84 87 92 96 90 89 89 91 94 99 98 100 100 97 95 92 87 84 85 94 94 92 92 93 89 91 80 73 64 60 50 59 61 64 65 76 78 65
80 83 83 88 86 84 87 89 93 93 91 87 87 94 98 98 100 100 95 82 80 82 80 79 82 87 84 83 89 91 89 82 67 66 60 50 68 67 69 68 72 76 71

GFSMA_925_rhum_111.txt.gz
RH
87 82 74 70 66 62 58 58 59 59 64 68 67 64 59 63 63 68 70 71 76 85 86 82 82 84 83 81 75 72 70 65 63 74 77 84 89 92 93 92 90 89 88
65 64 64 62 59 58 57 55 53 61 64 66 66 60 58 53 56 60 65 67 69 75 86 94 96 94 93 89 86 80 77 72 67 64 62 61 69 85 92 92 92 93 91
57 57 54 52 47 47 50 53 53 65 76 80 78 75 74 73 65 55 54 63 63 68 73 76 87 90 91 90 95 88 86 82 77 74 68 55 47 66 77 76 84 94 92
49 48 48 51 60 68 72 74 77 82 83 79 77 75 71 70 69 67 57 55 60 66 70 73 74 78 80 83 96 95 96 89 77 80 78 74 58 51 66 68 74 82 87
73 69 68 69 75 78 79 78 80 83 82 81 75 70 66 67 64 62 62 59 55 62 66 68 71 74 78 81 81 79 78 81 84 89 85 82 78 61 55 67 66 73 81
84 84 79 80 84 83 83 84 84 85 85 80 74 72 71 69 68 68 67 62 65 64 63 69 70 74 76 78 78 72 72 75 78 82 88 90 90 84 75 64 71 76 81
77 80 81 84 85 84 83 85 88 88 87 80 75 73 72 74 75 78 76 73 73 72 73 73 75 77 78 78 75 70 70 67 74 77 80 85 90 88 96 88 80 87 89
71 71 69 72 78 81 84 87 89 88 80 75 79 80 79 80 81 78 79 80 79 79 79 78 83 85 86 83 78 68 70 73 72 73 74 76 82 88 92 97 93 89 91
70 70 68 70 76 82 79 80 89 84 76 78 81 81 92 92 95 88 81 86 90 87 86 86 89 93 93 86 82 75 72 77 74 74 76 78 77 89 94 97 99 97 94
69 71 74 77 77 85 89 86 81 80 77 86 93 89 88 91 96 93 92 86 86 88 90 88 87 89 90 87 90 78 74 78 74 70 68 72 83 91 92 92 93 94 98
70 73 74 80 85 83 80 92 90 88 88 85 91 96 100 93 99 100 99 99 96 89 88 81 86 90 82 87 93 87 77 78 73 69 66 72 92 93 92 92 88 86 92
83 94 92 90 86 82 85 85 98 99 94 100 96 96 99 96 98 98 99 98 96 86 84 85 83 86 87 92 90 86 81 78 72 67 66 93 90 98 98 99 88 69 87
99 92 93 100 99 89 84 100 99 99 100 99 99 98 95 94 94 93 95 96 93 83 85 82 88 91 94 94 91 92 86 85 75 85 99 97 97 89 88 94 61 50 92
99 88 99 100 97 88 88 92 98 97 94 89 87 86 87 94 100 99 100 93 88 91 92 86 83 83 90 98 94 95 94 99 95 92 96 91 89 86 83 98 75 78 92
100 100 96 92 94 93 89 91 91 89 88 90 99 98 99 99 98 98 100 99 99 95 92 80 88 85 95 98 98 100 98 97 100 94 88 84 81 82 82 93 97 100 100
90 94 96 91 86 81 82 87 90 90 85 78 74 72 74 81 89 91 93 100 99 97 91 91 90 93 95 100 100 100 99 100 98 95 90 87 87 84 84 91 91 93 94
86 86 82 81 82 84 84 81 77 73 72 75 80 85 98 100 98 97 94 96 100 100 97 98 100 98 100 99 99 98 100 100 97 94 87 86 90 88 84 91 96 92 94
78 76 80 80 80 74 66 62 61 63 66 72 76 85 99 100 98 97 93 95 94 100 100 100 100 99 100 100 100 99 100 100 97 93 91 86 90 89 85 92 98 99 96
76 77 75 68 62 61 59 58 57 60 63 68 73 78 84 90 91 98 100 100 98 99 100 100 100 100 99 100 100 100 100 100 97 96 100 95 93 87 90 96 94 94 94
73 67 62 60 60 60 57 58 58 62 63 67 70 78 82 86 89 93 94 97 98 98 100 100 100 100 100 100 100 99 100 99 100 100 100 97 97 89 91 93 91 89 86
63 62 61 61 60 59 60 59 60 62 65 68 73 78 82 87 90 93 98 99 99 99 100 100 100 100 100 100 99 99 100 98 98 98 95 89 85 84 83 84 72 64 60
62 61 61 64 69 70 68 64 64 68 71 72 72 76 81 86 87 85 83 90 99 100 100 100 100 100 98 98 100 99 99 94 87 87 83 81 78 69 63 61 54 44 37
68 68 71 72 70 72 73 70 70 75 75 77 78 80 86 92 90 89 90 90 94 97 99 100 100 99 100 96 96 100 100 92 83 78 75 70 68 61 52 44 49 56 50
71 72 71 69 71 76 77 80 78 83 85 85 83 87 92 94 92 94 96 97 92 90 91 91 98 98 100 100 95 93 95 95 86 79 73 69 63 56 51 50 60 84 59
72 72 72 74 74 77 83 91 96 89 88 88 85 90 91 92 96 97 95 95 91 90 88 89 90 96 96 96 98 94 98 94 81 73 70 56 60 61 56 60 79 92 65
76 80 80 80 78 78 84 87 90 91 87 88 85 83 87 92 97 98 99 92 81 79 81 81 82 89 91 89 92 96 94 89 80 79 68 55 57 56 73 65 76 81 72

GFSMA_925_rhum_114.txt.gz
RH
82 86 88 86 77 75 72 65 62 65 66 64 65 64 61 66 69 70 69 70 78 86 87 83 80 80 80 78 75 70 68 69 65 63 64 76 90 94 94 92 92 91 88
75 74 76 77 76 73 66 63 60 60 62 63 63 60 55 58 61 68 68 74 69 76 88 96 94 93 88 84 82 79 77 72 68 64 58 49 64 85 89 90 93 93 91
79 76 72 74 71 67 66 63 61 62 66 73 70 66 68 64 60 59 60 65 72 68 74 82 92 94 94 97 95 87 85 81 78 75 72 63 54 66 73 75 89 91 92
78 74 71 69 67 66 63 61 60 66 74 77 74 73 70 71 66 63 62 62 70 69 75 73 75 80 87 96 95 98 98 85 83 85 79 78 66 60 68 65 75 82 88
73 70 66 65 70 75 79 81 82 78 80 80 77 73 69 68 69 66 65 62 64 70 71 75 72 75 79 85 94 95 93 87 82 86 88 85 82 73 68 73 73 81 82
70 69 70 76 82 84 83 85 83 86 82 79 73 71 69 71 72 70 68 66 64 70 72 72 75 78 78 79 81 78 80 72 75 79 88 95 92 85 79 85 78 81 84
86 85 82 85 89 87 85 87 88 88 88 84 72 64 68 75 78 81 82 80 76 79 78 76 79 86 90 80 82 82 77 74 72 77 78 84 93 98 97 90 91 89 89
92 91 90 90 91 89 91 91 90 90 82 77 67 70 62 69 80 80 76 86 92 88 85 82 83 89 88 89 89 85 79 76 75 76 78 77 79 84 96 98 94 94 92
82 93 94 97 95 98 98 93 88 86 75 86 84 77 71 68 73 89 86 80 84 88 86 85 86 89 93 94 90 86 80 78 76 78 96 83 74 80 86 96 97 96 95
76 76 79 80 88 93 89 85 89 87 82 90 87 85 94 88 75 72 88 88 83 89 90 90 88 83 90 94 90 92 94 81 80 76 84 93 90 91 91 92 93 98 98
84 75 79 93 86 77 74 74 78 76 79 94 93 100 99 100 98 94 98 97 90 85 85 85 81 81 90 88 90 96 97 83 80 76 85 91 91 92 92 93 92 89 89
90 83 80 79 79 84 89 80 79 83 84 99 99 99 93 94 95 97 97 93 95 86 82 82 78 82 83 84 85 92 93 94 88 75 71 94 93 93 97 98 97 93 89
96 86 85 88 91 89 91 92 100 97 92 96 99 99 97 90 88 90 88 82 87 88 84 81 76 77 85 88 91 91 91 91 92 80 86 100 94 95 93 82 72 64 50
84 86 90 92 100 100 99 96 99 99 99 99 100 100 93 94 98 98 94 86 79 68 76 80 78 78 84 93 94 93 93 96 99 100 100 99 93 89 83 79 74 60 44
92 98 85 99 100 100 99 100 100 100 100 100 100 99 98 97 96 97 98 98 91 80 71 64 84 86 91 95 96 97 95 96 98 100 97 96 87 83 81 80 90 97 96
86 93 100 100 99 96 91 98 99 95 99 96 94 94 88 81 96 98 100 99 98 97 81 80 89 88 92 93 98 100 100 98 100 99 98 96 90 86 84 83 84 97 98
100 100 99 100 93 90 90 87 87 87 87 80 82 90 90 90 90 92 98 99 98 99 95 88 94 94 97 100 100 100 100 100 100 100 96 91 89 89 89 89 90 93 97
100 98 94 89 86 83 81 84 80 77 80 83 88 87 86 87 90 98 96 96 100 100 100 99 99 97 99 100 100 100 100 100 99 100 95 90 91 92 89 89 93 99 100
92 87 83 80 80 79 74 74 70 74 79 82 85 85 84 87 94 97 99 99 99 99 99 100 99 99 99 100 100 100 100 100 99 99 98 99 99 94 88 89 93 99 94
80 81 81 78 70 65 63 61 63 67 70 68 66 69 72 80 90 94 97 94 99 98 99 100 100 100 100 100 100 100 100 100 100 100 100 99 99 94 92 92 94 93 93
80 77 71 66 63 62 59 58 59 62 66 68 68 69 70 74 82 89 96 97 98 99 98 100 100 100 100 100 99 99 100 100 100 100 100 99 97 93 94 92 91 93 88
73 69 68 65 64 60 59 58 59 61 64 69 72 73 74 81 88 87 87 86 90 99 98 100 100 100 99 100 100 100 100 100 98 98 99 95 88 85 84 84 78 64 56
67 66 66 67 72 71 66 64 63 65 69 71 73 76 86 85 90 92 89 87 91 94 98 98 99 100 100 99 99 100 100 99 92 87 91 82 82 76 69 65 59 52 45
69 68 70 71 75 82 71 69 71 73 75 76 76 79 92 93 94 92 95 96 97 91 90 91 91 93 99 99 100 99 99 99 94 86 83 78 74 70 70 58 48 67 64
73 73 72 73 73 74 78 80 81 81 79 80 77 79 89 94 91 88 92 88 90 90 88 90 90 91 95 97 99 100 100 99 90 83 79 67 72 70 76 71 78 85 80
75 78 79 77 82 89 86 93 88 85 85 84 80 80 78 82 88 97 100 94 86 80 79 81 80 81 91 96 99 100 100 98 88 87 80 66 69 74 81 77 90 89 87

GFSMA_925_rhum_117.txt.gz
RH
65 80 79 80 71 65 64 62 58 60 58 56 54 54 56 58 60 62 71 64 73 81 84 81 79 80 78 77 75 71 68 67 64 60 58 68 86 94 94 94 93 90 90
63 80 82 83 69 64 63 58 56 57 56 55 54 53 51 55 56 60 62 68 63 72 80 89 90 89 84 81 78 78 78 74 71 69 65 57 66 77 82 86 90 91 91
65 71 69 66 65 65 59 56 54 53 54 57 58 54 52 52 53 54 56 61 69 63 71 83 97 97 94 97 93 85 82 81 80 78 78 70 57 68 76 78 82 82 93
67 67 66 66 66 60 58 56 54 57 62 70 66 65 65 65 61 58 57 56 63 69 70 70 75 80 89 93 94 97 99 86 86 82 80 81 74 59 76 77 79 81 87
69 68 64 62 62 59 57 56 57 62 71 72 70 68 66 63 64 60 58 58 60 66 67 72 72 73 76 82 93 97 94 89 85 86 86 91 88 78 66 81 80 82 83
68 63 60 59 61 66 70 73 73 74 70 69 70 65 66 66 66 65 61 61 60 63 68 69 73 73 74 77 79 80 80 87 85 84 84 88 99 97 87 84 88 89 91
62 60 58 64 69 73 73 75 75 79 82 79 71 67 66 64 68 70 73 72 70 73 76 73 72 79 84 82 81 84 87 82 80 75 79 81 85 92 98 96 91 91 92
63 66 70 70 74 76 77 79 80 83 79 80 69 63 65 68 71 75 81 84 86 86 81 81 85 86 93 92 90 90 90 83 78 87 89 80 77 81 89 92 97 95 93
78 75 75 78 80 80 82 84 86 86 78 75 79 75 67 73 68 81 84 82 80 82 82 82 84 86 87 90 91 93 92 88 85 84 95 97 90 95 89 84 97 98 98
87 87 86 89 88 86 92 91 85 85 87 93 83 80 86 84 83 76 80 82 85 83 83 86 88 84 78 83 90 91 87 94 90 86 80 97 94 92 89 89 90 94 96
90 95 92 86 88 92 94 95 93 95 95 92 89 92 95 93 88 86 84 90 82 79 80 83 84 81 75 85 80 76 80 85 92 85 85 96 93 89 92 96 95 96 96
96 91 86 91 93 89 82 84 88 86 96 93 93 90 94 88 90 89 91 86 87 83 78 76 79 76 78 84 87 88 90 91 88 86 86 81 92 96 96 98 94 94 94
100 98 86 81 77 76 79 71 80 86 88 98 95 96 94 90 84 80 81 82 82 79 83 78 76 80 81 83 90 93 92 89 87 88 89 92 98 93 93 89 82 74 67
97 88 82 79 82 82 80 80 87 92 91 96 98 92 93 94 88 90 93 89 87 77 70 67 81 82 84 89 95 94 95 94 95 94 99 89 93 90 88 82 78 72 60
96 97 92 93 94 91 92 90 96 98 96 96 96 95 96 93 99 96 97 92 95 83 74 60 78 86 88 89 90 93 99 96 100 100 100 97 90 90 88 84 80 79 79
91 95 93 86 95 91 76 95 98 98 96 97 98 98 98 97 86 92 95 96 95 89 84 69 81 90 87 89 92 97 100 97 100 100 100 99 94 92 90 88 86 83 94
94 95 96 89 96 93 98 100 99 97 99 96 91 87 86 85 85 87 92 94 94 92 93 81 87 88 89 98 100 100 99 100 100 100 99 98 93 85 86 88 87 87 97
79 70 93 100 100 99 99 97 92 90 87 86 84 80 81 81 82 88 92 88 92 94 98 89 92 94 100 100 100 100 100 100 100 99 98 96 91 90 89 90 88 92 100
99 100 100 100 99 94 88 86 82 79 74 73 76 78 80 82 83 91 91 95 97 97 95 99 97 94 94 98 99 100 100 100 100 100 100 97 94 94 91 88 94 97 100
100 99 97 92 87 83 79 74 68 67 69 73 74 78 80 82 84 88 91 90 92 94 92 91 94 100 100 99 100 100 100 100 100 100 100 100 98 95 92 91 91 97 97
93 88 83 81 78 74 67 63 64 68 71 71 69 71 72 72 74 80 84 91 94 96 94 93 93 99 99 99 100 100 100 100 100 100 100 100 99 94 96 94 89 92 91
82 80 79 75 70 65 61 57 58 65 68 70 71 69 70 70 74 78 80 81 82 93 95 93 93 100 99 100 100 100 100 100 98 99 100 100 99 96 93 92 87 89 88
80 76 72 69 67 60 58 58 61 63 65 67 68 69 75 75 78 87 88 83 85 87 90 95 99 99 100 100 100 100 100 100 98 94 100 98 96 91 85 83 84 74 61
79 77 76 75 72 66 63 64 64 64 67 69 70 75 82 87 89 90 94 92 91 94 89 90 91 90 91 94 100 100 100 100 99 95 94 86 84 84 78 71 69 60 51
80 79 78 80 80 75 69 69 69 73 72 71 72 75 80 86 90 86 92 91 87 86 86 83 85 88 90 94 99 100 100 100 97 93 89 80 77 72 71 72 70 55 70
78 80 80 79 84 84 77 73 74 78 78 78 74 78 73 76 75 80 96 97 91 84 81 79 79 77 83 93 98 100 100 100 95 94 89 77 73 70 76 74 78 77 93

GFSMA_925_rhum_120.txt.gz
RH
80 74 78 81 77 82 70 63 64 64 60 57 54 56 58 59 61 65 64 58 66 74 78 77 76 76 75 76 74 72 69 66 64 62 60 64 84 95 95 94 92 91 90
71 68 76 80 70 73 66 65 61 60 58 56 55 56 54 58 60 63 66 67 58 68 76 82 86 85 82 79 78 77 79 77 74 73 69 56 64 76 80 82 84 93 90
74 71 72 72 71 64 63 59 57 58 56 56 56 53 50 49 53 56 62 64 68 62 68 78 95 96 92 95 90 84 83 84 82 81 80 75 62 64 74 70 79 85 88
64 72 72 75 69 65 61 56 54 54 57 60 65 63 61 63 62 56 56 57 63 68 68 67 71 81 87 90 96 96 98 87 84 86 86 87 80 70 72 78 76 78 83
71 72 67 68 67 61 58 56 54 57 64 71 69 68 67 66 64 63 60 59 59 65 69 74 72 71 74 77 80 85 83 85 81 84 87 95 96 90 83 87 80 80 82
68 67 66 66 63 60 57 55 56 62 69 71 73 70 68 67 66 66 64 62 61 61 64 68 71 71 75 74 77 80 81 84 83 83 83 86 89 99 98 92 92 91 91
69 65 64 62 60 61 66 68 73 74 74 74 74 70 68 66 67 70 71 72 71 68 69 72 78 79 80 84 80 79 82 84 83 86 93 86 86 83 88 95 96 95 94
67 64 60 61 64 71 73 75 76 79 80 80 74 72 81 74 71 74 75 78 78 79 79 79 82 84 85 87 85 84 87 89 85 80 78 83 74 80 94 92 89 96 97
66 60 61 65 72 75 76 77 79 83 82 84 77 78 82 89 79 78 81 77 76 74 76 80 81 84 86 86 85 87 93 91 87 81 78 79 78 86 94 92 91 88 97
63 68 71 72 76 77 79 83 85 86 88 87 78 75 80 83 92 90 81 82 80 81 80 82 86 88 88 84 87 93 94 94 98 91 86 84 76 87 91 90 93 94 93
70 75 73 77 81 83 86 85 90 91 91 89 84 90 86 85 86 91 92 88 81 81 80 82 82 82 84 82 88 88 86 89 92 95 97 93 97 93 87 84 83 86 77
84 86 86 84 88 86 86 88 87 83 81 81 88 91 90 91 92 90 93 84 90 83 82 75 76 79 82 80 80 86 91 92 89 87 96 100 98 99 91 86 80 86 84
93 92 91 88 85 80 82 79 77 81 82 80 87 93 93 88 88 85 80 76 84 78 76 74 73 76 79 81 81 87 92 94 91 90 96 97 99 100 95 86 86 79 73
99 96 93 90 85 79 76 75 78 68 80 86 88 94 95 94 91 88 86 89 94 76 75 74 87 88 84 83 84 84 91 96 96 95 90 100 99 98 89 83 78 75 67
98 95 88 84 81 81 81 73 66 76 91 85 88 89 98 93 90 92 94 99 98 94 88 74 85 90 86 85 84 85 99 92 97 100 100 100 98 92 90 90 81 80 74
96 87 88 90 88 84 83 84 98 91 91 91 96 96 91 95 92 94 88 91 93 95 90 78 85 90 93 92 93 98 100 99 99 100 100 100 98 97 88 82 80 78 76
90 87 92 98 91 84 85 96 66 68 98 97 95 98 98 87 79 77 86 89 89 87 92 85 81 83 90 99 100 98 99 99 99 99 99 99 97 92 86 83 80 78 86
97 94 93 92 91 92 88 87 77 82 98 96 96 91 85 82 81 84 84 89 86 87 91 90 85 84 86 89 92 96 98 100 100 99 99 99 95 90 86 86 83 86 89
99 100 98 95 92 88 88 88 94 99 96 92 86 82 81 77 80 83 83 76 81 92 93 92 92 89 89 94 96 94 97 98 100 99 99 98 98 93 90 85 86 92 100
100 100 100 96 89 96 98 100 96 90 83 79 78 77 78 73 76 78 81 89 93 93 92 88 87 91 93 93 98 100 99 100 100 100 99 99 100 99 94 88 87 90 99
100 100 100 100 99 99 94 88 81 77 74 73 72 72 69 66 68 74 80 87 90 87 92 91 92 96 94 97 96 100 100 99 99 100 100 100 100 100 96 92 90 89 92
99 100 100 98 91 86 81 76 72 66 64 62 63 63 63 64 67 71 78 78 80 86 92 92 90 93 93 97 98 100 100 99 99 99 100 100 100 100 98 94 91 90 90
97 95 91 84 80 76 71 65 61 59 60 61 60 61 65 68 69 75 81 81 81 83 87 89 99 98 97 97 99 99 100 100 99 97 100 99 100 99 97 92 91 86 82
85 83 80 76 72 68 66 67 63 60 61 63 64 66 69 73 79 82 85 91 93 90 88 86 90 92 92 91 92 95 99 100 100 99 99 98 92 95 94 89 87 84 82
84 82 80 78 69 66 68 66 60 61 63 66 66 68 72 76 76 80 81 87 87 88 88 84 84 86 86 86 90 100 100 100 99 98 96 92 85 85 86 83 79 80 72
81 80 81 80 77 70 68 70 69 69 70 70 71 72 72 73 76 75 80 92 96 88 84 81 80 78 76 82 89 98 100 99 100 96 94 93 81 80 78 77 75 73 78

GFSMA_925_rhum_123.txt.gz
RH
82 82 84 82 68 65 59 66 70 70 66 61 61 58 59 63 65 66 60 58 65 74 78 81 78 78 78 77 75 74 72 72 70 67 65 73 89 97 96 94 93 92 91
86 81 79 83 74 65 58 63 67 64 60 57 56 56 60 62 64 64 68 66 60 65 72 78 79 83 84 81 78 78 81 80 79 77 74 64 69 78 76 68 71 85 88
87 75 76 77 71 71 59 66 66 61 59 57 56 55 52 54 60 62 65 67 66 65 63 70 82 91 92 90 88 81 79 80 81 82 81 80 72 63 66 65 73 78 69
82 73 73 71 74 76 67 65 59 59 57 58 58 55 52 57 54 55 56 58 61 67 68 68 69 78 83 91 96 88 88 84 84 83 83 86 84 79 70 70 72 75 67
77 67 72 64 75 72 63 58 56 55 58 60 69 66 66 67 66 64 60 59 60 65 66 71 74 73 74 75 77 84 82 86 83 81 83 89 94 92 89 91 78 80 77
71 68 67 66 73 64 60 57 55 56 64 72 72 70 70 68 65 66 64 63 63 64 64 67 69 73 75 78 79 79 79 82 86 79 82 83 84 88 96 98 96 94 92
69 72 69 73 67 62 58 57 55 60 69 74 75 71 68 68 69 69 69 69 69 65 68 68 71 74 77 81 86 86 85 89 93 85 87 84 87 86 89 89 95 97 96
66 72 72 67 65 61 58 56 56 76 79 77 74 76 88 79 77 76 76 76 75 76 79 79 82 88 88 91 91 91 94 96 98 92 88 80 83 83 90 92 97 91 96
69 66 65 65 63 59 59 64 73 74 80 81 75 72 91 91 86 82 77 75 76 75 77 81 84 85 87 90 90 88 95 96 94 91 90 87 94 93 93 92 91 92 84
69 66 64 63 61 62 71 75 77 78 82 80 78 77 74 76 89 97 85 81 79 78 79 80 85 89 90 89 84 87 91 90 88 89 92 99 98 94 93 92 89 88 90
67 64 61 60 62 71 77 78 83 84 86 76 77 84 87 85 84 90 94 91 81 82 81 78 78 79 83 82 80 86 87 84 83 85 94 98 99 99 97 96 98 94 76
66 61 61 62 73 78 78 82 85 85 87 82 78 79 80 87 93 91 93 84 85 82 77 78 78 82 88 86 84 85 86 92 93 90 85 97 96 94 95 98 93 82 77
76 72 72 73 80 81 83 87 86 88 85 81 83 89 87 87 87 87 83 80 82 82 80 80 85 87 90 88 87 84 86 90 91 89 87 93 97 98 96 93 83 73 70
74 72 78 77 82 86 87 86 90 85 83 82 85 91 93 94 90 86 79 81 95 87 83 87 96 91 89 86 80 75 80 86 93 82 86 100 100 100 96 88 77 78 72
91 86 84 85 88 88 86 88 87 80 77 90 93 96 96 94 89 82 84 85 87 94 90 91 92 91 91 91 90 85 94 99 93 88 99 98 98 99 91 87 82 75 69
92 94 92 89 84 86 84 86 89 82 86 92 96 100 96 91 84 90 91 92 93 92 92 84 91 93 91 87 99 99 99 99 100 100 100 100 100 98 93 85 78 72 68
87 98 93 90 92 87 90 87 87 85 94 94 95 91 92 91 94 85 85 86 86 87 93 89 89 86 84 84 88 96 97 98 100 99 100 99 100 97 92 87 82 74 71
89 100 99 93 89 92 92 76 80 92 97 82 87 92 95 97 82 78 83 86 87 85 86 91 90 85 85 87 90 93 89 88 95 100 98 99 99 97 94 87 82 75 78
100 100 100 100 100 90 77 78 79 89 88 86 77 96 94 86 79 82 84 87 91 89 87 88 89 85 85 86 93 99 100 99 100 99 100 99 100 98 93 88 80 77 80
95 100 100 99 94 91 90 89 92 87 89 96 97 92 84 80 72 79 82 79 79 84 87 89 88 88 90 89 91 90 98 100 99 99 99 99 100 100 96 88 82 80 86
98 99 100 99 98 99 100 97 94 98 98 97 87 82 79 76 74 78 75 74 81 88 87 90 90 93 96 96 96 95 97 99 96 98 99 99 100 100 100 94 88 83 85
100 99 99 100 99 100 100 100 95 98 95 84 79 78 76 72 74 74 69 73 76 84 88 90 90 88 89 91 93 97 99 100 98 94 100 99 99 100 99 97 93 89 88
100 100 100 100 100 99 99 99 97 90 81 76 70 66 67 66 65 64 68 73 75 78 79 83 88 91 95 92 92 93 96 100 99 97 99 99 100 99 99 99 95 92 88
100 100 100 100 98 92 82 80 75 71 67 64 61 61 62 66 67 68 73 78 82 85 85 83 84 85 87 90 92 94 100 100 100 100 100 99 96 97 99 98 95 93 89
90 90 91 93 92 82 81 77 71 66 64 66 68 68 67 66 71 77 78 83 90 88 87 85 82 84 86 85 93 100 100 100 99 99 99 99 92 89 88 89 91 90 88
85 85 85 87 89 87 90 92 84 70 71 70 71 71 74 72 76 79 74 78 84 86 88 86 82 80 78 79 86 99 100 100 100 99 97 97 90 85 81 82 83 82 82

GFSMA_925_rhum_126.txt.gz
RH
96 94 81 63 43 44 44 47 44 58 62 63 64 62 66 66 65 63 57 61 65 69 72 74 76 75 76 77 74 73 72 71 68 65 59 64 74 82 86 89 92 89 92
87 85 82 66 47 45 51 62 68 67 64 64 64 62 64 66 66 66 66 65 62 64 69 78 84 86 84 79 78 77 78 76 77 74 73 66 65 71 77 84 80 75 88
84 83 81 72 55 55 61 70 70 69 65 60 59 60 60 65 67 66 67 68 66 67 67 73 84 89 89 86 89 81 76 77 79 81 80 79 76 69 69 76 76 72 71
82 82 79 78 63 60 58 66 68 69 63 59 57 56 53 55 59 60 60 64 66 68 68 69 74 85 92 94 95 91 90 88 89 85 84 82 84 85 81 76 78 74 74
85 79 76 74 62 64 59 66 67 64 60 61 58 57 57 59 60 63 59 60 62 65 67 71 74 76 78 82 85 94 84 82 84 85 84 86 86 92 95 90 91 82 82
85 85 76 68 64 74 69 71 63 61 58 61 72 69 70 68 67 66 65 63 63 66 71 72 70 72 78 80 81 83 85 88 86 83 81 81 79 80 87 96 99 98 97
92 82 75 63 70 77 73 66 59 57 64 73 75 74 73 72 70 70 69 70 67 66 68 72 73 74 80 82 84 86 87 92 94 93 92 85 82 84 84 91 90 92 98
89 82 73 63 75 79 74 61 57 64 72 76 77 76 90 82 77 76 76 77 78 78 77 78 83 85 85 90 92 93 93 93 96 92 92 92 90 90 96 95 94 91 94
90 79 68 61 70 75 64 59 57 58 74 80 74 72 95 93 88 85 82 79 79 79 78 81 82 84 88 91 92 92 93 94 92 88 99 98 98 95 86 94 91 88 89
86 76 72 68 68 71 62 59 56 59 77 85 79 77 72 79 90 98 89 82 79 82 82 79 78 86 91 95 88 86 88 89 88 88 100 100 96 97 93 92 95 90 95
85 74 68 70 73 67 65 59 58 61 76 78 78 86 80 81 80 87 94 94 88 80 84 80 82 84 86 89 82 79 84 87 85 86 86 98 98 92 97 96 94 87 96
78 69 64 70 68 66 63 59 64 75 78 77 76 75 79 82 88 88 95 89 84 82 85 88 87 84 86 87 84 82 83 85 88 88 86 95 98 97 90 98 93 80 74
83 77 68 67 66 64 61 66 76 81 84 81 76 77 73 71 73 80 83 84 86 86 90 90 88 87 88 87 86 81 79 83 88 92 91 98 98 99 95 97 88 79 76
80 75 69 66 64 63 66 76 82 87 87 86 82 81 81 81 81 80 80 81 95 94 93 94 100 97 92 89 88 85 79 77 86 96 96 97 98 93 98 98 87 81 77
80 72 66 65 63 66 77 83 85 89 90 86 82 83 90 89 88 85 82 72 81 95 94 98 96 96 93 90 87 84 86 99 100 100 99 91 90 96 93 93 88 78 72
82 72 73 66 70 77 85 85 91 93 89 82 85 89 95 94 92 86 81 83 86 83 88 88 95 98 92 85 86 86 98 98 97 98 99 94 99 98 96 93 88 82 76
82 79 76 80 82 81 85 92 95 92 87 88 94 96 96 97 88 85 85 88 85 88 89 92 95 94 90 87 86 86 89 90 94 96 98 99 99 99 96 93 89 82 76
96 84 89 92 86 85 93 97 95 89 92 98 99 99 100 99 94 90 81 76 68 74 84 89 93 90 87 86 83 85 88 89 87 89 95 97 98 100 98 93 86 81 77
92 84 98 99 79 83 81 97 92 92 94 96 99 99 97 98 89 81 73 74 83 83 85 85 87 89 87 86 84 75 73 78 89 91 100 99 98 100 100 94 88 83 77
99 93 78 72 71 83 98 96 97 96 89 95 97 95 95 87 78 78 77 81 80 83 86 83 86 88 89 89 87 84 87 98 89 92 97 100 99 100 100 99 91 86 81
100 96 96 98 97 100 99 98 93 89 90 94 99 98 94 87 82 77 64 75 79 81 84 86 88 89 91 94 90 92 94 95 96 92 92 98 100 100 99 99 96 88 84
94 95 100 100 100 99 100 98 99 97 94 98 100 100 100 95 88 72 69 75 72 79 84 85 87 87 83 86 90 92 95 98 94 98 98 96 99 99 99 100 98 95 89
100 100 100 100 100 100 99 100 100 100 100 100 100 99 94 87 78 73 78 79 84 84 80 77 82 83 85 86 91 92 94 96 96 98 100 97 94 94 99 99 99 97 93
100 100 100 100 100 99 100 100 100 100 100 100 100 96 86 79 71 68 69 71 74 76 77 78 82 84 89 91 94 95 98 99 99 98 100 100 98 95 94 100 99 99 96
94 96 98 99 100 98 98 98 100 98 99 96 90 79 68 64 71 74 70 73 81 85 86 85 84 85 89 90 91 100 100 100 99 98 97 100 96 94 91 88 93 97 96
90 90 92 93 97 98 96 95 95 90 88 81 79 77 76 70 70 72 74 76 84 84 87 88 84 82 80 80 82 86 99 100 100 99 99 99 95 92 83 83 85 87 91

GFSMA_925_rhum_129.txt.gz
RH
99 92 86 73 48 35 39 42 51 62 64 65 67 68 68 68 63 58 58 64 68 72 80 82 76 79 74 75 73 73 71 71 70 69 64 62 67 70 72 73 85 86 93
98 96 85 70 45 35 43 42 53 60 63 68 68 64 66 68 68 66 64 64 65 69 73 83 90 85 81 80 76 73 74 76 76 76 74 72 68 65 68 72 73 75 81
93 100 82 68 44 38 45 45 50 61 68 69 67 63 66 68 69 67 68 69 66 69 71 78 94 94 96 97 98 89 80 75 78 78 78 79 81 79 75 71 69 66 68
88 96 81 68 45 42 50 54 60 72 69 63 64 64 65 68 68 67 67 68 68 69 71 71 77 86 87 88 92 91 91 91 86 88 84 84 83 87 87 85 84 76 74
91 80 82 70 47 45 56 69 74 72 68 63 62 61 57 57 58 60 62 63 66 68 71 73 76 79 81 83 85 82 81 82 86 86 85 83 82 89 94 98 99 97 95
98 84 85 77 54 54 62 72 72 75 67 63 61 59 61 62 62 68 67 63 63 66 70 74 74 72 75 79 83 85 86 91 90 89 82 84 83 81 88 86 92 98 98
98 90 87 81 66 60 61 66 71 72 67 66 75 78 76 74 72 71 70 68 67 67 72 72 72 74 78 83 86 90 88 90 93 95 86 90 84 87 95 94 94 81 81
100 97 90 85 78 70 71 66 74 71 66 71 78 78 89 82 80 78 76 76 76 75 75 78 82 84 86 90 93 92 91 93 96 95 94 90 90 88 89 95 95 96 89
100 98 94 84 76 76 74 71 74 64 68 78 76 73 96 94 90 87 86 85 84 83 82 84 85 85 87 88 89 92 89 90 94 91 97 96 90 91 91 93 85 96 90
99 100 94 87 77 78 80 75 73 62 62 84 81 70 74 78 93 98 93 87 82 80 81 84 84 84 88 92 92 83 87 88 85 85 99 98 92 96 95 94 96 92 79
99 94 93 84 79 75 76 77 72 63 60 73 81 84 84 84 78 88 98 95 88 85 84 86 85 85 83 88 86 83 82 85 84 85 93 99 98 93 96 94 91 90 79
100 100 95 91 90 76 76 76 66 60 60 66 77 78 75 80 86 85 94 95 88 90 92 91 88 88 88 90 89 85 81 79 82 86 97 99 98 90 96 87 88 89 79
98 100 100 97 95 77 72 74 66 61 60 75 77 78 74 68 66 73 78 90 90 91 97 94 92 88 88 88 83 78 71 69 72 94 100 99 93 92 98 92 94 90 82
98 100 100 100 94 78 71 72 67 63 60 70 78 79 74 76 74 66 74 82 95 97 98 95 99 97 91 86 82 81 79 70 82 94 86 85 90 90 96 94 95 90 83
95 98 93 98 91 78 72 72 71 64 66 78 83 81 78 82 78 75 76 73 74 98 98 96 97 97 94 91 90 83 75 83 92 99 100 98 92 93 100 100 94 88 83
100 100 97 98 90 76 70 70 70 70 78 85 88 87 92 88 82 80 80 77 73 75 86 84 97 93 95 94 87 80 72 83 96 97 99 100 99 100 92 99 94 90 84
97 98 98 97 93 76 71 71 72 77 84 90 92 91 90 86 86 88 82 85 81 84 84 83 94 95 95 90 85 80 76 84 85 91 96 98 96 92 96 97 95 88 82
95 97 95 93 80 80 74 78 82 87 91 95 93 88 89 94 93 88 86 84 88 89 82 83 92 98 94 88 84 81 80 87 87 89 91 93 95 92 93 100 94 88 80
96 92 96 89 86 85 87 85 87 93 94 91 90 93 97 99 98 92 90 88 85 76 67 75 88 96 90 90 88 86 79 74 73 87 92 99 98 96 99 99 96 90 82
98 92 74 69 82 88 91 95 95 95 100 96 87 87 100 96 94 89 94 87 77 79 80 82 85 90 90 90 91 89 79 80 75 82 87 93 98 96 100 100 99 92 84
98 100 100 98 100 100 100 99 100 100 99 89 87 90 83 87 93 93 87 83 81 87 87 87 89 93 93 96 93 84 87 89 84 81 84 89 96 99 100 100 100 96 89
100 100 100 100 99 97 100 100 98 96 91 84 95 99 100 98 96 95 88 87 73 72 82 86 87 90 87 83 84 86 89 95 96 92 94 91 93 97 100 100 100 99 94
100 100 100 100 100 100 99 100 100 100 100 98 100 99 100 100 100 100 99 97 93 86 70 68 79 79 78 75 79 88 91 94 95 97 99 95 93 92 95 100 99 99 97
93 96 99 100 100 100 100 100 98 100 100 100 100 100 100 100 100 100 100 99 94 89 85 81 78 75 75 75 81 82 88 94 98 99 99 100 95 94 92 94 99 100 99
91 91 94 95 93 95 93 96 97 98 99 100 100 100 100 100 99 100 96 92 88 82 80 80 78 80 82 86 89 91 96 100 100 99 97 100 98 94 92 91 90 96 100
99 98 96 94 98 99 97 91 92 94 94 98 98 98 95 95 96 90 83 76 80 81 87 91 84 84 86 87 87 86 96 100 99 100 98 99 98 95 88 84 85 87 92

GFSMA_925_rhum_135.txt.gz
RH
99 94 93 91 87 65 59 63 67 70 70 69 70 69 67 58 58 64 73 78 85 86 87 81 76 76 75 74 74 72 70 68 70 71 70 70 70 71 71 73 73 78 89
99 94 85 88 88 80 57 53 68 70 70 70 69 69 69 67 58 60 64 70 74 79 84 94 96 94 93 91 83 73 70 70 72 75 76 77 78 80 78 76 74 72 70
98 100 94 88 82 76 59 51 68 71 72 70 69 70 70 70 68 67 67 69 70 73 78 88 92 88 88 96 97 94 90 82 84 81 85 84 85 88 84 83 83 82 80
98 99 94 90 81 64 56 49 64 71 71 70 70 70 69 70 71 71 71 72 72 72 74 76 78 85 87 84 87 89 81 80 83 87 91 93 89 87 86 87 88 89 94
99 99 99 89 85 73 54 48 56 68 72 70 71 73 68 69 72 73 73 72 72 73 73 75 75 78 79 80 81 80 79 79 80 81 82 82 82 80 79 76 81 88 93
98 100 100 99 88 86 66 56 59 66 77 72 74 72 71 69 72 74 75 73 71 71 73 73 76 75 75 73 80 84 82 82 83 87 83 85 86 80 76 76 79 76 77
100 100 100 100 94 89 71 52 63 71 79 78 75 77 70 67 69 72 68 68 71 71 71 72 74 75 74 77 83 85 87 89 94 92 91 85 86 80 78 81 90 91 81
100 100 100 100 95 93 86 57 64 80 82 78 74 77 76 80 80 72 73 75 72 70 71 72 75 75 77 82 86 89 90 91 95 96 93 82 83 83 86 89 84 86 88
100 100 100 100 100 95 87 64 64 70 79 86 71 70 84 77 86 87 84 80 79 77 76 76 79 82 86 87 92 93 91 90 95 100 95 86 82 85 96 88 92 92 84
100 100 99 100 100 97 90 78 60 69 78 84 88 70 75 76 79 89 98 93 88 86 86 86 86 84 82 82 85 89 90 83 85 90 100 98 89 89 97 92 95 89 86
100 100 100 100 100 100 92 85 77 77 82 80 82 87 92 82 80 86 93 98 97 92 89 85 81 81 80 80 82 87 84 80 79 82 97 99 99 93 95 98 98 97 77
100 100 100 100 100 97 96 90 88 70 82 83 83 82 79 78 88 85 87 94 93 94 89 87 86 83 82 82 81 86 84 80 78 77 82 96 92 91 92 96 99 96 80
96 99 99 100 100 98 99 100 94 86 66 86 84 85 80 78 70 72 73 91 87 97 96 91 89 89 87 86 84 86 87 81 77 68 76 97 87 89 90 98 99 94 82
86 89 99 100 100 100 100 100 95 88 86 79 85 82 83 83 76 71 69 79 88 93 100 99 94 93 87 83 83 83 80 71 70 67 63 71 81 84 92 89 84 88 86
86 85 97 100 100 100 100 100 100 95 87 82 89 89 84 81 80 78 73 66 66 80 88 96 89 89 86 85 82 79 76 69 68 58 61 90 98 86 85 88 84 82 84
88 89 86 94 100 100 100 100 100 91 90 92 95 93 88 84 82 78 78 74 69 70 76 77 83 76 84 92 92 87 81 80 67 56 56 78 98 98 99 93 91 81 83
91 86 90 86 86 100 100 100 99 98 98 96 98 94 93 89 90 84 81 83 82 78 82 83 78 85 90 98 95 96 92 81 72 67 70 82 85 94 98 98 99 92 89
85 88 89 90 92 99 100 100 99 97 98 97 95 99 97 97 90 85 89 90 90 92 87 83 85 92 95 100 100 96 94 84 78 72 71 76 87 89 93 95 93 92 90
80 87 90 95 94 96 100 100 99 98 97 91 88 93 97 98 92 95 92 100 100 100 97 87 91 91 94 99 100 99 100 90 79 72 55 62 80 92 93 94 89 92 90
86 79 90 98 97 95 95 99 100 99 80 78 94 100 98 99 94 93 99 91 97 100 100 99 97 98 99 100 100 100 100 92 82 73 65 62 69 78 90 94 95 93 92
78 90 99 99 98 100 100 100 100 100 99 100 100 100 100 98 70 68 78 96 100 99 100 100 100 99 99 100 99 100 99 92 84 80 72 68 70 76 86 93 99 97 92
98 100 100 99 100 100 100 99 100 100 100 98 95 90 97 98 99 99 98 100 91 86 100 99 99 97 97 95 96 97 95 97 90 77 77 74 79 81 85 92 96 99 95
100 100 100 100 100 100 96 100 97 95 98 99 100 100 99 98 97 100 99 100 100 99 100 98 98 99 95 90 86 96 95 88 80 75 81 88 86 86 91 96 100 100 100
100 100 100 100 100 100 100 100 98 99 99 100 100 100 99 99 98 99 100 100 100 100 100 100 100 99 97 97 97 90 86 88 85 83 84 94 80 84 83 89 97 100 100
100 100 100 99 98 99 98 98 99 99 99 100 98 99 100 99 91 84 89 98 99 99 98 99 100 99 100 100 96 94 95 97 99 97 90 95 90 92 90 90 92 98 100
90 87 89 91 92 95 91 90 93 96 98 99 100 99 99 99 100 100 91 90 95 92 92 95 95 94 94 98 100 100 98 96 99 100 91 96 96 94 96 88 90 91 98

GFSMA_925_rhum_138.txt.gz
RH
99 91 95 96 92 75 69 71 65 66 68 64 64 62 60 61 64 68 70 80 91 91 94 95 83 80 78 74 70 66 66 66 68 70 69 71 72 73 75 76 72 78 85
98 99 99 92 82 80 65 67 58 62 65 64 65 66 66 62 63 67 68 79 78 84 89 96 96 97 96 88 80 70 66 65 70 76 77 78 80 80 80 81 79 78 80
99 100 99 94 82 80 67 61 59 60 63 64 63 64 66 66 66 69 70 70 80 75 79 88 92 86 90 97 98 95 90 85 81 83 84 87 88 88 85 86 86 84 84
99 99 99 89 82 79 76 64 60 60 61 64 62 64 66 69 68 69 72 74 78 78 80 75 80 86 90 90 83 93 84 80 88 89 91 94 94 93 86 94 95 91 93
98 97 97 88 83 82 77 66 57 56 59 62 62 64 66 67 71 71 72 74 76 82 79 82 74 75 76 78 79 80 77 80 79 79 83 90 86 80 78 79 82 81 85
99 97 99 94 86 84 76 66 55 55 56 59 63 65 67 69 71 74 72 74 75 82 85 84 83 81 75 74 75 80 79 81 84 82 82 81 82 81 82 88 87 82 77
100 100 98 98 93 86 78 68 57 55 58 59 62 63 68 71 73 73 75 73 72 80 81 82 84 85 85 73 74 80 85 93 91 91 89 88 85 86 84 87 95 94 78
100 100 100 100 98 86 81 74 60 56 56 64 62 56 59 61 69 69 67 68 69 75 81 84 88 90 89 93 93 81 84 86 94 96 97 84 84 85 84 89 94 92 85
98 100 100 100 100 94 88 79 67 60 58 63 63 56 56 58 51 64 70 72 77 82 85 89 88 92 91 94 89 85 88 89 90 99 98 86 87 95 93 96 89 96 87
99 100 100 100 99 100 95 88 75 67 59 63 72 67 62 59 64 68 74 75 80 82 88 88 80 92 90 97 97 96 89 88 91 93 99 95 91 86 94 94 97 100 87
99 100 100 100 100 100 99 93 84 74 66 61 74 72 74 74 70 64 68 87 92 93 92 91 92 96 96 91 94 84 86 88 85 86 96 99 100 95 95 94 96 99 97
92 99 100 99 100 100 100 97 90 90 75 67 66 70 73 75 74 78 75 82 80 86 94 95 96 96 97 92 87 79 82 80 79 77 80 82 98 96 95 92 93 98 96
79 95 97 100 100 99 100 100 98 94 87 79 73 75 75 76 69 78 68 61 76 81 92 96 97 95 95 94 88 76 76 75 76 76 80 100 89 83 76 88 92 96 93
62 79 89 98 98 100 100 100 99 98 96 88 79 81 82 83 79 74 74 69 71 73 87 86 95 97 97 88 86 77 83 80 80 79 70 94 64 62 74 88 94 98 99
57 61 82 96 99 98 100 100 100 100 100 96 91 84 85 83 82 83 78 70 69 71 69 79 91 78 89 88 86 81 81 77 76 72 71 66 62 54 71 89 93 92 88
60 62 69 83 97 100 100 100 100 100 100 99 95 90 85 82 83 88 88 80 77 72 76 66 79 82 88 94 93 88 84 86 79 77 69 60 69 68 70 81 86 87 85
60 69 71 73 82 98 99 100 100 100 100 99 99 95 86 77 80 83 92 90 86 83 80 71 82 88 86 83 95 98 100 98 92 87 76 72 85 89 84 86 90 96 93
61 61 72 71 71 72 93 99 100 100 99 99 95 94 85 82 89 87 94 94 94 88 89 80 89 92 89 88 88 90 98 98 97 96 82 84 87 89 85 91 91 94 95
56 56 61 64 69 74 80 92 100 100 100 99 95 91 93 90 94 97 98 100 98 92 74 98 91 96 98 97 100 100 100 96 99 92 84 78 78 88 90 90 89 89 87
62 56 60 66 72 75 80 87 98 100 100 98 100 97 96 95 97 98 94 75 80 85 95 100 99 99 96 98 100 100 100 97 96 94 89 80 68 73 84 92 96 91 89
69 67 67 72 78 83 88 92 97 100 100 100 100 100 100 100 97 97 96 94 94 98 100 100 100 100 100 100 99 97 100 100 100 96 94 84 74 68 78 86 95 92 90
87 97 90 84 92 96 98 96 99 100 100 100 100 100 100 98 93 91 96 100 97 100 100 99 98 98 97 99 100 99 100 100 98 98 100 91 85 85 92 95 99 92 100
98 98 100 100 100 100 100 96 99 99 92 96 98 97 92 88 89 99 100 100 99 95 100 100 100 99 98 95 98 100 100 98 94 92 98 96 89 82 87 98 83 96 99
98 100 100 100 100 100 100 100 100 100 100 100 100 99 99 99 100 100 100 97 98 99 99 98 99 98 97 97 98 99 100 100 100 97 93 97 94 93 92 98 92 99 99
100 100 100 100 99 100 100 98 96 98 98 99 99 99 99 100 99 99 100 100 100 99 98 91 91 92 93 90 90 99 100 100 99 100 100 97 97 94 95 94 92 98 100
96 97 99 98 99 94 87 86 86 90 91 92 91 92 93 92 92 97 98 99 100 100 100 100 100 100 96 92 84 82 88 98 99 100 97 99 100 96 98 95 97 93 99

GFSMA_925_rhum_141.txt.gz
RH
95 92 89 86 86 80 65 65 62 60 61 54 51 50 50 52 56 60 72 70 86 92 96 96 92 84 78 70 69 66 64 64 67 67 70 74 74 76 78 83 84 85 92
93 90 87 86 85 74 62 60 58 54 59 54 52 54 53 53 54 58 61 74 69 83 89 94 97 97 97 90 82 71 66 65 67 73 78 82 82 82 85 87 91 89 94
92 88 88 88 80 72 64 59 59 51 55 55 53 54 55 54 55 56 60 63 73 65 74 85 93 91 88 96 97 97 95 91 87 85 86 89 91 91 94 94 95 94 97
93 92 91 92 81 74 68 58 54 50 52 55 55 54 54 56 55 56 61 64 68 74 73 68 73 83 88 91 90 96 96 90 83 88 92 93 92 91 90 90 91 90 90
93 92 92 89 82 77 71 62 55 51 52 54 55 54 56 57 60 58 61 65 68 72 72 74 75 70 73 77 77 82 95 85 79 77 79 86 89 87 80 82 84 80 95
94 95 93 89 82 78 76 70 60 54 51 52 53 53 57 59 61 64 65 66 67 72 79 78 78 77 70 71 73 74 79 86 78 79 77 79 79 79 79 85 95 94 98
94 93 95 91 85 81 79 72 65 53 51 50 53 56 58 59 63 65 68 66 66 69 74 77 79 81 80 80 72 70 73 93 93 87 86 86 85 82 80 87 90 85 86
97 93 96 96 88 86 80 73 64 54 51 51 53 56 62 59 63 65 67 67 66 65 71 77 77 82 83 85 78 70 74 79 94 100 96 93 87 85 93 92 95 90 83
90 99 97 99 95 87 84 77 68 58 53 52 54 55 60 61 57 63 66 65 64 64 67 75 79 82 88 87 90 86 81 81 84 96 100 100 95 93 94 96 96 96 97
86 96 96 99 99 96 89 83 76 65 57 56 59 58 51 49 55 61 63 66 65 68 70 79 83 88 88 83 84 89 88 83 84 86 100 99 98 97 97 94 94 98 97
75 96 100 100 100 100 98 89 84 74 64 60 61 66 61 63 69 64 68 73 70 72 76 80 88 87 89 84 85 93 82 80 80 84 100 99 98 95 97 93 95 95 92
65 83 99 100 100 100 100 96 89 80 72 65 62 64 65 65 68 68 68 67 77 76 85 89 89 88 88 87 84 86 73 69 76 83 98 99 100 97 98 94 89 87 92
63 77 90 100 99 100 100 100 99 92 82 74 66 68 68 67 67 65 68 60 64 71 84 88 87 86 89 90 84 80 74 70 76 80 82 98 98 98 85 77 89 91 90
51 62 78 90 97 99 100 100 100 99 94 87 81 76 77 73 72 69 70 72 72 73 79 82 76 80 82 85 84 83 78 74 76 76 77 85 94 99 79 74 86 99 90
47 48 61 71 78 96 99 100 100 99 100 99 94 86 83 89 87 86 77 74 70 79 70 71 79 68 73 84 85 84 83 83 80 79 79 81 84 82 68 62 78 90 100
49 48 48 60 68 92 100 99 100 100 100 99 100 99 96 91 86 87 84 82 80 77 81 64 73 68 68 73 80 83 80 87 83 78 77 80 75 72 76 79 75 92 91
52 51 51 52 62 76 94 100 100 100 100 100 100 99 96 92 90 90 89 86 85 81 84 77 71 71 79 82 78 84 91 90 80 78 70 72 71 71 68 83 78 87 93
60 58 56 55 60 68 80 94 97 100 100 100 100 100 98 95 92 90 85 86 94 88 87 84 80 83 87 91 90 88 96 97 90 87 80 84 70 72 66 73 75 80 83
66 59 59 57 63 71 71 82 96 100 100 100 99 100 100 99 96 91 86 88 89 92 94 95 88 92 91 90 97 91 99 100 98 97 91 90 86 78 68 61 75 81 82
68 61 58 57 60 59 62 67 78 89 93 93 96 97 96 96 96 88 92 93 93 97 99 99 99 94 97 98 96 99 100 100 99 99 98 94 92 92 81 69 62 74 80
61 59 60 57 60 62 65 69 72 79 96 97 88 96 99 99 89 96 99 100 100 99 98 98 99 99 100 99 98 97 100 100 99 100 100 98 99 97 92 80 73 65 66
69 67 68 62 65 70 72 76 79 85 93 94 100 100 100 100 100 98 88 86 97 99 100 98 90 93 96 99 96 100 100 100 98 97 100 100 99 99 96 89 78 64 57
99 100 100 94 98 98 97 94 92 98 100 100 100 100 100 100 100 100 99 99 99 99 100 99 100 99 99 98 100 100 100 98 96 93 100 100 100 100 100 98 87 75 75
98 100 99 100 100 100 100 100 100 100 100 100 99 98 100 100 100 100 99 100 98 99 99 100 100 100 100 100 100 100 99 100 100 100 100 99 99 100 100 100 96 92 93
97 98 100 99 100 100 100 100 99 99 99 99 100 100 100 100 100 96 92 93 95 96 96 99 99 100 100 99 98 100 100 100 100 99 99 99 99 99 99 98 98 98 98
99 100 100 100 98 98 94 92 91 93 95 96 93 94 93 93 94 94 99 99 99 99 99 95 92 98 99 99 100 100 100 100 99 100 94 100 98 97 100 97 92 97 95

GFSMA_925_rhum_144.txt.gz
RH
87 89 86 92 90 89 81 76 82 69 67 63 55 52 52 52 55 61 66 58 60 76 79 76 74 70 71 70 66 65 65 65 65 69 77 77 79 81 84 89 97 98 97
89 90 88 90 89 85 74 70 68 68 64 61 54 52 50 52 54 58 64 68 59 64 70 84 96 92 80 84 85 78 76 72 72 74 80 87 89 90 90 92 95 94 95
84 91 89 89 87 80 80 65 62 60 58 60 55 52 54 53 54 56 60 67 67 59 61 68 94 95 87 95 97 96 96 94 92 92 91 93 95 91 91 90 96 90 90
92 88 90 89 86 78 74 63 60 60 54 57 55 54 55 55 54 54 57 61 65 71 69 60 63 75 89 90 88 94 93 86 85 81 79 87 89 92 94 86 79 82 84
92 91 88 89 81 83 73 65 60 59 52 54 56 55 55 55 56 57 57 61 65 70 73 74 74 67 66 70 73 73 79 86 82 76 77 76 83 88 84 79 84 89 89
92 95 89 88 84 82 77 69 61 55 52 52 56 56 55 56 58 59 60 61 65 67 70 74 77 77 74 66 66 67 69 75 82 77 78 78 78 78 80 80 85 92 95
91 94 97 89 87 87 82 72 67 58 53 52 55 55 55 57 59 60 62 64 66 68 69 72 76 80 80 78 74 70 68 71 93 84 84 83 84 84 81 80 83 95 95
85 91 93 93 87 91 84 78 74 64 57 52 56 59 79 64 60 62 64 67 68 68 68 70 75 78 80 82 80 77 70 70 82 98 96 93 92 90 82 87 88 96 93
83 88 91 96 94 95 89 82 76 70 61 54 52 60 82 86 71 61 64 66 68 69 67 68 72 76 79 81 83 80 77 76 76 87 99 91 95 98 90 96 96 93 93
64 87 86 93 93 92 93 84 78 71 63 59 56 54 52 54 75 85 68 68 68 67 65 64 68 73 76 80 82 85 76 72 76 80 96 97 96 95 94 92 94 93 86
56 67 85 90 92 99 97 88 87 79 66 60 58 59 61 57 60 77 90 78 68 67 66 67 71 76 79 79 80 80 82 80 76 76 80 99 100 96 94 92 93 84 85
45 68 71 78 90 98 99 95 91 87 78 64 60 60 60 61 72 78 87 86 81 72 70 70 74 78 80 78 75 77 80 79 77 74 78 99 99 98 94 98 96 94 85
42 48 63 80 94 98 100 100 99 98 92 76 66 65 68 65 58 64 71 72 83 75 71 72 70 68 69 72 76 73 76 78 76 74 74 95 99 99 99 97 93 95 93
43 43 61 63 78 84 93 97 99 100 96 90 79 70 71 73 68 68 71 77 87 82 82 74 70 70 66 68 62 59 76 77 73 74 73 73 93 95 95 98 88 76 71
43 46 55 61 63 70 81 96 86 100 98 99 91 83 80 78 79 89 78 83 88 89 86 71 78 72 64 63 58 60 73 68 71 74 76 76 76 81 83 92 89 62 62
46 48 46 46 54 68 70 81 81 91 97 98 99 100 95 93 88 88 87 94 96 96 93 66 59 66 67 65 62 65 66 72 78 84 84 80 75 79 64 76 62 60 50
49 49 49 47 45 47 66 71 81 94 100 100 100 100 100 98 96 92 94 100 100 100 96 83 75 69 74 72 73 77 83 86 81 86 89 89 79 78 66 67 62 59 55
52 50 50 50 49 46 49 66 75 86 97 100 100 100 97 100 97 96 96 97 99 98 97 91 85 83 77 75 76 81 85 84 80 80 82 87 82 85 80 77 74 65 60
57 58 57 57 56 54 52 56 66 71 89 100 100 100 100 100 100 97 97 95 95 95 96 97 92 85 86 88 92 95 93 91 89 84 81 93 69 91 95 90 82 74 76
72 73 69 65 60 59 59 63 70 69 69 88 96 99 98 96 97 99 97 94 94 95 96 97 95 93 99 99 99 95 100 98 94 84 91 95 76 88 95 90 90 85 89
72 69 67 65 61 60 59 60 58 59 68 75 71 74 78 81 90 92 97 99 97 99 98 99 100 100 100 99 97 94 100 98 96 94 98 89 87 90 98 99 98 95 93
74 71 66 71 69 58 64 61 58 58 63 66 66 66 78 89 95 100 100 100 100 100 100 100 100 100 97 99 96 93 99 100 97 90 92 99 99 100 99 100 100 96 97
85 87 72 87 98 94 70 67 70 78 83 95 100 100 100 100 99 100 98 99 98 100 100 100 100 100 100 100 100 100 100 100 98 96 98 100 99 99 99 99 100 99 100
99 99 99 99 99 100 100 100 99 100 100 100 100 100 100 100 100 99 100 100 99 98 96 97 99 100 100 100 100 100 100 100 100 100 100 100 98 99 98 99 99 100 99
100 100 98 100 99 100 100 100 99 100 100 100 100 99 100 99 98 94 93 94 98 99 99 99 95 97 99 99 100 98 98 100 99 98 96 100 97 97 95 92 92 99 99
100 97 98 100 100 99 98 99 97 100 100 100 95 92 91 92 92 98 99 100 100 100 99 92 88 90 95 99 99 100 100 100 100 99 98 100 100 99 98 97 94 97 99

GFSMA_925_rhum_147.txt.gz
RH
86 87 85 92 90 92 84 75 66 64 60 72 65 52 53 54 63 62 63 65 52 59 73 78 64 60 62 63 65 66 65 63 64 69 78 82 85 85 88 88 91 90 89
89 88 86 90 91 90 87 78 69 67 56 69 72 60 52 53 56 58 63 65 63 52 57 67 79 68 68 79 84 84 81 80 86 86 90 92 92 90 90 89 92 93 92
90 90 89 90 89 88 86 80 76 71 69 65 66 58 54 51 54 56 61 62 67 67 56 58 67 95 94 96 96 92 97 95 91 88 87 92 94 91 91 93 87 77 78
87 88 90 90 88 87 87 80 76 70 70 66 63 58 54 53 52 54 58 60 64 67 68 65 57 61 79 95 96 96 93 91 89 88 82 80 82 90 91 92 78 72 81
92 88 90 90 90 88 86 80 82 67 63 60 61 58 56 56 56 55 55 57 60 63 68 70 70 71 63 63 74 94 96 95 90 89 82 77 80 86 87 79 79 84 90
95 93 94 90 89 90 87 79 78 64 62 59 57 58 56 56 56 56 57 56 58 62 67 70 72 74 75 74 68 65 69 77 86 89 85 80 82 82 81 81 82 88 90
80 96 96 93 91 92 88 81 76 63 61 60 54 61 58 56 57 57 58 60 61 63 66 69 70 71 72 74 74 71 72 71 71 86 88 86 88 88 89 87 85 90 88
75 80 94 100 99 95 92 85 83 69 62 56 58 64 81 65 59 59 58 60 62 64 66 68 70 70 72 74 75 75 74 74 70 82 94 86 86 89 94 98 97 94 96
43 82 87 96 100 100 97 88 88 76 67 60 54 59 87 86 73 60 62 62 62 65 68 69 71 71 71 74 79 78 76 75 74 75 95 94 89 87 91 96 95 92 89
36 36 80 86 97 100 100 95 90 87 73 67 62 59 54 59 84 82 67 62 63 65 68 70 70 70 71 73 75 77 74 73 78 77 86 98 96 88 87 90 88 88 91
38 43 48 77 80 93 90 96 96 90 84 73 67 64 62 63 65 81 91 82 70 68 66 68 69 68 66 68 70 72 76 72 75 76 77 100 99 94 95 91 88 88 91
41 41 50 60 72 77 85 89 84 91 90 78 72 68 62 62 65 82 90 89 81 71 66 68 68 66 66 69 71 69 73 75 73 77 78 97 99 93 94 93 92 87 88
37 42 42 60 63 69 79 87 93 96 96 88 77 70 66 63 60 62 72 80 87 74 70 68 68 68 68 71 72 70 74 76 78 80 72 82 98 96 94 95 99 100 98
43 38 36 47 53 69 75 79 87 91 93 99 90 76 74 73 73 75 69 70 89 87 82 74 69 70 73 59 61 56 63 69 70 82 79 81 99 96 96 94 94 86 88
46 42 42 45 48 54 54 68 83 86 93 94 99 97 85 86 80 81 79 77 84 94 92 72 76 70 72 80 64 62 65 62 63 68 82 85 90 85 89 91 90 86 67
50 45 46 46 50 55 65 67 75 82 84 89 99 99 97 98 89 87 91 89 93 92 94 86 81 74 73 75 76 78 71 73 70 76 67 71 88 83 82 82 80 89 70
51 49 46 46 47 48 48 52 69 73 81 88 90 90 99 96 99 98 98 100 100 100 97 92 87 82 78 74 71 70 70 68 70 78 76 73 70 80 80 83 80 78 75
58 53 50 51 49 48 48 50 54 60 72 82 84 98 96 100 100 100 100 100 100 100 99 98 95 90 83 83 81 77 74 74 78 76 77 76 74 78 81 82 82 81 79
59 58 55 53 52 53 53 52 51 53 64 67 77 99 100 100 100 99 100 100 100 100 100 100 96 95 94 90 87 86 86 86 87 87 92 87 91 88 89 89 86 84 79
57 58 59 60 62 64 63 61 61 58 56 67 72 72 95 100 100 98 100 99 100 100 100 100 99 99 95 98 100 100 100 100 99 99 93 86 84 79 82 88 94 91 93
80 78 78 77 76 74 73 70 65 63 62 67 73 72 78 88 86 72 90 100 100 100 100 100 99 99 100 99 99 91 98 94 96 92 91 89 85 90 93 95 100 100 100
84 82 82 74 73 70 66 64 70 65 66 68 63 65 80 83 99 82 95 100 100 100 100 100 99 99 99 100 100 100 100 100 99 92 100 98 99 99 94 97 98 100 100
100 98 97 93 94 92 71 59 60 68 75 72 78 94 97 99 99 100 100 100 100 100 100 100 100 99 100 100 99 99 99 100 100 98 100 99 98 100 96 94 92 93 93
100 99 100 100 100 98 98 99 89 94 98 100 100 100 100 99 100 99 100 100 99 100 98 97 99 100 100 100 100 100 100 100 99 98 100 100 98 98 94 91 85 81 79
98 99 100 100 100 100 100 100 100 100 100 100 100 99 99 99 100 100 97 98 100 100 99 98 96 98 99 100 100 100 99 99 99 99 99 100 100 98 90 80 74 74 76
99 98 99 100 100 100 100 99 98 100 100 100 100 100 100 99 100 96 92 97 99 100 99 99 99 99 100 99 99 99 100 100 100 100 100 100 99 98 98 89 83 83 83